Time,TemperatureF,DewpointF,PressureIn,WindDirection,WindDirectionDegrees,WindSpeedMPH,WindSpeedGustMPH,Humidity,HourlyPrecipIn,Conditions,Clouds,dailyrainin,SoftwareType,DateUTC
2013-09-03 00:00:00,69.3,41.2,29.94,NNE,22,4.7,5.6,36,0.00,,SKC,0.00,VWS V14.00,2013-09-03 07:00:00,
2013-09-03 00:01:00,69.1,41.0,29.94,North,0,2.9,5.6,36,0.00,,SKC,0.00,VWS V14.00,2013-09-03 07:01:00,
2013-09-03 00:02:00,69.1,41.0,29.94,North,0,4.0,5.6,36,0.00,,SKC,0.00,VWS V14.00,2013-09-03 07:02:00,
2013-09-03 00:03:00,69.1,41.0,29.94,NNE,22,3.8,4.0,36,0.00,,SKC,0.00,VWS V14.00,2013-09-03 07:03:00,
2013-09-03 00:04:00,69.1,41.0,29.94,NNE,22,3.8,4.0,36,0.00,,SKC,0.00,VWS V14.00,2013-09-03 07:04:00,
2013-09-03 00:05:00,69.1,41.0,29.94,NNE,22,3.8,4.0,36,0.00,,SKC,0.00,VWS V14.00,2013-09-03 07:05:00,
2013-09-03 00:06:00,69.1,41.0,29.94,NNE,22,4.9,4.9,36,0.00,,SKC,0.00,VWS V14.00,2013-09-03 07:06:00,
2013-09-03 00:07:00,69.1,41.0,29.94,NNE,22,4.9,4.9,36,0.00,,SKC,0.00,VWS V14.00,2013-09-03 07:07:00,
2013-09-03 00:08:00,69.1,41.0,29.94,NE,45,3.4,5.4,36,0.00,,SKC,0.00,VWS V14.00,2013-09-03 07:08:00,
2013-09-03 00:10:00,69.3,41.2,29.94,North,0,4.7,5.4,36,0.00,,SKC,0.00,VWS V14.00,2013-09-03 07:10:00,
2013-09-03 00:12:00,69.3,41.2,29.94,NNE,22,4.9,5.8,36,0.00,,SKC,0.00,VWS V14.00,2013-09-03 07:12:00,
2013-09-03 00:13:00,69.3,41.2,29.94,NE,45,4.9,5.8,36,0.00,,SKC,0.00,VWS V14.00,2013-09-03 07:13:00,
2013-09-03 00:15:00,69.3,40.5,29.94,NNE,22,3.4,5.8,35,0.00,,SKC,0.00,VWS V14.00,2013-09-03 07:15:00,
2013-09-03 00:16:00,69.3,41.2,29.94,NE,45,3.4,4.3,36,0.00,,SKC,0.00,VWS V14.00,2013-09-03 07:16:00,
2013-09-03 00:17:00,69.1,41.0,29.94,NNE,22,3.8,4.3,36,0.00,,SKC,0.00,VWS V14.00,2013-09-03 07:17:00,
2013-09-03 00:18:00,69.1,41.0,29.94,NNE,22,3.6,4.3,36,0.00,,SKC,0.00,VWS V14.00,2013-09-03 07:18:00,
2013-09-03 00:20:00,69.1,41.0,29.94,NE,45,4.9,4.9,36,0.00,,SKC,0.00,VWS V14.00,2013-09-03 07:20:00,
2013-09-03 00:21:00,69.1,41.0,29.94,NNE,22,3.1,4.0,36,0.00,,SKC,0.00,VWS V14.00,2013-09-03 07:21:00,
2013-09-03 00:22:00,69.1,41.0,29.94,NE,45,5.4,5.4,36,0.00,,SKC,0.00,VWS V14.00,2013-09-03 07:22:00,
2013-09-03 00:23:00,69.1,41.0,29.94,NE,45,4.0,5.4,36,0.00,,SKC,0.00,VWS V14.00,2013-09-03 07:23:00,
2013-09-03 00:25:00,68.7,40.7,29.94,NE,45,2.0,5.4,36,0.00,,SKC,0.00,VWS V14.00,2013-09-03 07:25:00,
2013-09-03 00:26:00,68.7,40.7,29.94,NE,45,2.0,3.1,36,0.00,,SKC,0.00,VWS V14.00,2013-09-03 07:26:00,
2013-09-03 00:27:00,68.7,40.7,29.94,NE,45,2.0,3.1,36,0.00,,SKC,0.00,VWS V14.00,2013-09-03 07:27:00,
2013-09-03 00:28:00,68.7,40.7,29.94,NNE,22,3.1,3.1,36,0.00,,SKC,0.00,VWS V14.00,2013-09-03 07:28:00,
2013-09-03 00:30:00,68.5,40.5,29.94,NE,45,4.0,4.9,36,0.00,,SKC,0.00,VWS V14.00,2013-09-03 07:30:00,
2013-09-03 00:32:00,68.5,41.3,29.94,North,0,3.4,4.0,37,0.00,,SKC,0.00,VWS V14.00,2013-09-03 07:32:00,
2013-09-03 00:33:00,68.5,41.3,29.94,NNE,22,0.0,4.0,37,0.00,,SKC,0.00,VWS V14.00,2013-09-03 07:33:00,
2013-09-03 00:34:00,68.5,41.3,29.94,NNE,22,0.0,4.0,37,0.00,,SKC,0.00,VWS V14.00,2013-09-03 07:34:00,
2013-09-03 00:35:00,68.4,41.1,29.94,North,0,3.6,4.0,37,0.00,,SKC,0.00,VWS V14.00,2013-09-03 07:35:00,
2013-09-03 00:37:00,68.4,40.4,29.94,WNW,292,0.0,4.0,36,0.00,,SKC,0.00,VWS V14.00,2013-09-03 07:37:00,
2013-09-03 00:38:00,68.2,40.2,29.94,WNW,292,0.0,4.0,36,0.00,,SKC,0.00,VWS V14.00,2013-09-03 07:38:00,
2013-09-03 00:39:00,68.2,40.2,29.94,WNW,292,0.0,4.0,36,0.00,,SKC,0.00,VWS V14.00,2013-09-03 07:39:00,
2013-09-03 00:41:00,68.0,40.1,29.94,West,270,1.1,4.0,36,0.00,,SKC,0.00,VWS V14.00,2013-09-03 07:41:00,
2013-09-03 00:42:00,67.8,39.9,29.94,SW,225,0.0,4.0,36,0.00,,SKC,0.00,VWS V14.00,2013-09-03 07:42:00,
2013-09-03 00:43:00,67.8,39.9,29.94,SW,225,0.0,4.0,36,0.00,,SKC,0.00,VWS V14.00,2013-09-03 07:43:00,
2013-09-03 00:44:00,67.6,41.2,29.97,SSW,202,0.0,4.0,38,0.00,,SKC,0.00,VWS V14.00,2013-09-03 07:44:00,
2013-09-03 00:45:00,67.6,41.2,29.97,South,180,2.9,4.0,38,0.00,,SKC,0.00,VWS V14.00,2013-09-03 07:45:00,
2013-09-03 00:46:00,67.3,40.8,29.97,SSE,158,2.5,2.9,38,0.00,,SKC,0.00,VWS V14.00,2013-09-03 07:46:00,
2013-09-03 00:47:00,67.3,41.5,29.97,SSE,158,0.0,4.0,39,0.00,,SKC,0.00,VWS V14.00,2013-09-03 07:47:00,
2013-09-03 00:48:00,67.3,41.5,29.97,South,180,2.9,4.0,39,0.00,,SKC,0.00,VWS V14.00,2013-09-03 07:48:00,
2013-09-03 00:49:00,67.3,41.5,29.97,SE,135,2.9,4.0,39,0.00,,SKC,0.00,VWS V14.00,2013-09-03 07:49:00,
2013-09-03 00:50:00,67.1,42.0,29.97,SE,135,4.3,4.3,40,0.00,,SKC,0.00,VWS V14.00,2013-09-03 07:50:00,
2013-09-03 00:51:00,67.1,42.0,29.97,SE,135,3.6,4.9,40,0.00,,SKC,0.00,VWS V14.00,2013-09-03 07:51:00,
2013-09-03 00:53:00,67.1,42.0,29.97,East,90,3.6,4.9,40,0.00,,SKC,0.00,VWS V14.00,2013-09-03 07:53:00,
2013-09-03 00:54:00,67.1,42.0,29.97,SE,135,3.1,4.9,40,0.00,,SKC,0.00,VWS V14.00,2013-09-03 07:54:00,
2013-09-03 00:55:00,67.1,42.6,29.97,ESE,112,3.4,4.9,41,0.00,,SKC,0.00,VWS V14.00,2013-09-03 07:55:00,
2013-09-03 00:56:00,66.9,42.5,29.97,East,90,2.9,3.8,41,0.00,,SKC,0.00,VWS V14.00,2013-09-03 07:56:00,
2013-09-03 00:58:00,66.9,42.5,29.97,East,90,4.0,4.0,41,0.00,,SKC,0.00,VWS V14.00,2013-09-03 07:58:00,
2013-09-03 00:59:00,66.9,42.5,29.94,East,90,1.3,4.0,41,0.00,,SKC,0.00,VWS V14.00,2013-09-03 07:59:00,
2013-09-03 01:00:00,66.9,42.5,29.94,East,90,2.5,4.0,41,0.00,,SKC,0.00,VWS V14.00,2013-09-03 08:00:00,
2013-09-03 01:01:00,66.9,42.5,29.94,ENE,68,1.3,2.5,41,0.00,,SKC,0.00,VWS V14.00,2013-09-03 08:01:00,
2013-09-03 01:02:00,66.7,42.3,29.94,East,90,1.6,2.5,41,0.00,,SKC,0.00,VWS V14.00,2013-09-03 08:02:00,
2013-09-03 01:03:00,66.7,41.7,29.94,NE,45,2.2,2.5,40,0.00,,SKC,0.00,VWS V14.00,2013-09-03 08:03:00,
2013-09-03 01:04:00,66.7,41.7,29.94,ENE,68,0.0,2.5,40,0.00,,SKC,0.00,VWS V14.00,2013-09-03 08:04:00,
2013-09-03 01:05:00,66.7,41.7,29.94,East,90,0.0,2.5,40,0.00,,SKC,0.00,VWS V14.00,2013-09-03 08:05:00,
2013-09-03 01:06:00,66.6,42.2,29.94,East,90,0.0,0.0,41,0.00,,SKC,0.00,VWS V14.00,2013-09-03 08:06:00,
2013-09-03 01:07:00,66.6,42.2,29.94,East,90,0.0,0.0,41,0.00,,SKC,0.00,VWS V14.00,2013-09-03 08:07:00,
2013-09-03 01:08:00,66.6,42.2,29.94,East,90,0.0,0.0,41,0.00,,SKC,0.00,VWS V14.00,2013-09-03 08:08:00,
2013-09-03 01:09:00,66.6,42.2,29.94,East,90,0.0,0.0,41,0.00,,SKC,0.00,VWS V14.00,2013-09-03 08:09:00,
2013-09-03 01:11:00,66.6,41.5,29.94,East,90,0.0,0.0,40,0.00,,SKC,0.00,VWS V14.00,2013-09-03 08:11:00,
2013-09-03 01:12:00,66.6,41.5,29.94,East,90,0.0,0.0,40,0.00,,SKC,0.00,VWS V14.00,2013-09-03 08:12:00,
2013-09-03 01:13:00,66.6,42.2,29.94,East,90,3.1,3.1,41,0.00,,SKC,0.00,VWS V14.00,2013-09-03 08:13:00,
2013-09-03 01:14:00,66.6,42.2,29.94,East,90,2.7,3.1,41,0.00,,SKC,0.00,VWS V14.00,2013-09-03 08:14:00,
2013-09-03 01:15:00,66.6,42.2,29.94,East,90,1.3,3.1,41,0.00,,SKC,0.00,VWS V14.00,2013-09-03 08:15:00,
2013-09-03 01:16:00,66.6,42.2,29.94,East,90,2.0,2.0,41,0.00,,SKC,0.00,VWS V14.00,2013-09-03 08:16:00,
2013-09-03 01:17:00,66.6,42.2,29.94,East,90,1.3,2.2,41,0.00,,SKC,0.00,VWS V14.00,2013-09-03 08:17:00,
2013-09-03 01:18:00,66.6,42.2,29.94,East,90,1.3,2.5,41,0.00,,SKC,0.00,VWS V14.00,2013-09-03 08:18:00,
2013-09-03 01:19:00,66.6,42.2,29.94,East,90,1.3,2.5,41,0.00,,SKC,0.00,VWS V14.00,2013-09-03 08:19:00,
2013-09-03 01:20:00,66.6,42.2,29.94,East,90,0.0,3.4,41,0.00,,SKC,0.00,VWS V14.00,2013-09-03 08:20:00,
2013-09-03 01:21:00,66.6,42.2,29.94,East,90,2.2,2.2,41,0.00,,SKC,0.00,VWS V14.00,2013-09-03 08:21:00,
2013-09-03 01:22:00,66.6,42.2,29.94,NE,45,2.7,2.7,41,0.00,,SKC,0.00,VWS V14.00,2013-09-03 08:22:00,
2013-09-03 01:24:00,66.4,41.3,29.94,East,90,0.0,2.7,40,0.00,,SKC,0.00,VWS V14.00,2013-09-03 08:24:00,
2013-09-03 01:25:00,66.4,41.3,29.94,SE,135,0.0,2.7,40,0.00,,SKC,0.00,VWS V14.00,2013-09-03 08:25:00,
2013-09-03 01:27:00,66.4,41.3,29.94,SE,135,1.3,1.6,40,0.00,,SKC,0.00,VWS V14.00,2013-09-03 08:27:00,
2013-09-03 01:28:00,66.4,41.3,29.94,SE,135,2.0,2.0,40,0.00,,SKC,0.00,VWS V14.00,2013-09-03 08:28:00,
2013-09-03 01:29:00,66.4,41.3,29.94,SE,135,0.0,2.0,40,0.00,,SKC,0.00,VWS V14.00,2013-09-03 08:29:00,
2013-09-03 01:30:00,66.2,41.8,29.94,SE,135,0.0,2.0,41,0.00,,SKC,0.00,VWS V14.00,2013-09-03 08:30:00,
2013-09-03 01:32:00,66.0,41.7,29.94,SE,135,0.0,0.0,41,0.00,,SKC,0.00,VWS V14.00,2013-09-03 08:32:00,
2013-09-03 01:33:00,66.0,42.3,29.94,SE,135,2.0,2.0,42,0.00,,SKC,0.00,VWS V14.00,2013-09-03 08:33:00,
2013-09-03 01:34:00,66.0,42.3,29.94,SE,135,2.5,3.1,42,0.00,,SKC,0.00,VWS V14.00,2013-09-03 08:34:00,
2013-09-03 01:35:00,66.0,42.3,29.94,East,90,3.1,3.1,42,0.00,,SKC,0.00,VWS V14.00,2013-09-03 08:35:00,
2013-09-03 01:37:00,65.7,42.6,29.94,East,90,2.9,3.1,43,0.00,,SKC,0.00,VWS V14.00,2013-09-03 08:37:00,
2013-09-03 01:39:00,65.7,42.6,29.94,East,90,3.4,3.6,43,0.00,,SKC,0.00,VWS V14.00,2013-09-03 08:39:00,
2013-09-03 01:40:00,65.7,42.6,29.94,East,90,3.4,3.6,43,0.00,,SKC,0.00,VWS V14.00,2013-09-03 08:40:00,
2013-09-03 01:42:00,65.7,42.6,29.94,East,90,2.9,3.8,43,0.00,,SKC,0.00,VWS V14.00,2013-09-03 08:42:00,
2013-09-03 01:44:00,65.8,42.7,29.91,East,90,4.7,4.7,43,0.00,,SKC,0.00,VWS V14.00,2013-09-03 08:44:00,
2013-09-03 01:45:00,65.8,42.7,29.91,East,90,4.7,4.7,43,0.00,,SKC,0.00,VWS V14.00,2013-09-03 08:45:00,
2013-09-03 01:47:00,66.0,42.9,29.91,NE,45,3.6,4.3,43,0.00,,SKC,0.00,VWS V14.00,2013-09-03 08:47:00,
2013-09-03 01:49:00,66.2,43.1,29.91,NE,45,1.6,4.3,43,0.00,,SKC,0.00,VWS V14.00,2013-09-03 08:49:00,
2013-09-03 01:50:00,66.2,43.1,29.91,NE,45,3.6,4.3,43,0.00,,SKC,0.00,VWS V14.00,2013-09-03 08:50:00,
2013-09-03 01:51:00,66.2,42.5,29.91,NE,45,2.5,4.3,42,0.00,,SKC,0.00,VWS V14.00,2013-09-03 08:51:00,
2013-09-03 01:52:00,66.2,42.5,29.91,NNE,22,4.0,4.3,42,0.00,,SKC,0.00,VWS V14.00,2013-09-03 08:52:00,
2013-09-03 01:54:00,66.2,42.5,29.91,ENE,68,2.5,4.3,42,0.00,,SKC,0.00,VWS V14.00,2013-09-03 08:54:00,
2013-09-03 01:55:00,66.2,42.5,29.91,NE,45,3.4,4.3,42,0.00,,SKC,0.00,VWS V14.00,2013-09-03 08:55:00,
2013-09-03 01:56:00,66.2,42.5,29.91,ESE,112,0.0,2.9,42,0.00,,SKC,0.00,VWS V14.00,2013-09-03 08:56:00,
2013-09-03 01:57:00,66.2,42.5,29.91,ESE,112,0.0,2.9,42,0.00,,SKC,0.00,VWS V14.00,2013-09-03 08:57:00,
2013-09-03 02:00:00,66.2,42.5,29.94,East,90,0.0,2.9,42,0.00,,SKC,0.00,VWS V14.00,2013-09-03 09:00:00,
2013-09-03 02:02:00,66.2,41.8,29.94,NE,45,0.0,0.0,41,0.00,,SKC,0.00,VWS V14.00,2013-09-03 09:02:00,
2013-09-03 02:03:00,66.0,41.7,29.94,NE,45,0.0,0.0,41,0.00,,SKC,0.00,VWS V14.00,2013-09-03 09:03:00,
2013-09-03 02:05:00,66.0,41.7,29.94,East,90,2.2,2.2,41,0.00,,SKC,0.00,VWS V14.00,2013-09-03 09:05:00,
2013-09-03 02:07:00,66.0,41.7,29.94,East,90,0.9,1.6,41,0.00,,SKC,0.00,VWS V14.00,2013-09-03 09:07:00,
2013-09-03 02:08:00,66.0,41.7,29.94,East,90,0.9,1.6,41,0.00,,SKC,0.00,VWS V14.00,2013-09-03 09:08:00,
2013-09-03 02:10:00,66.0,42.3,29.94,East,90,0.0,1.6,42,0.00,,SKC,0.00,VWS V14.00,2013-09-03 09:10:00,
2013-09-03 02:12:00,66.0,42.3,29.94,East,90,0.0,1.6,42,0.00,,SKC,0.00,VWS V14.00,2013-09-03 09:12:00,
2013-09-03 02:13:00,65.8,41.5,29.91,East,90,0.0,1.6,41,0.00,,SKC,0.00,VWS V14.00,2013-09-03 09:13:00,
2013-09-03 02:14:00,65.8,41.5,29.91,East,90,0.0,1.6,41,0.00,,SKC,0.00,VWS V14.00,2013-09-03 09:14:00,
2013-09-03 02:15:00,65.8,41.5,29.91,East,90,0.0,1.6,41,0.00,,SKC,0.00,VWS V14.00,2013-09-03 09:15:00,
2013-09-03 02:17:00,65.7,41.3,29.91,East,90,0.0,0.0,41,0.00,,SKC,0.00,VWS V14.00,2013-09-03 09:17:00,
2013-09-03 02:18:00,65.7,41.3,29.91,East,90,0.0,0.0,41,0.00,,SKC,0.00,VWS V14.00,2013-09-03 09:18:00,
2013-09-03 02:20:00,65.5,40.5,29.91,SE,135,0.0,0.0,40,0.00,,SKC,0.00,VWS V14.00,2013-09-03 09:20:00,
2013-09-03 02:21:00,65.5,40.5,29.91,SE,135,0.0,0.0,40,0.00,,SKC,0.00,VWS V14.00,2013-09-03 09:21:00,
2013-09-03 02:23:00,65.3,41.6,29.91,SE,135,0.0,0.0,42,0.00,,SKC,0.00,VWS V14.00,2013-09-03 09:23:00,
2013-09-03 02:25:00,65.1,41.5,29.91,SE,135,0.0,0.0,42,0.00,,SKC,0.00,VWS V14.00,2013-09-03 09:25:00,
2013-09-03 02:26:00,65.1,41.5,29.91,SE,135,0.0,0.0,42,0.00,,SKC,0.00,VWS V14.00,2013-09-03 09:26:00,
2013-09-03 02:28:00,65.1,41.5,29.91,SE,135,0.0,0.0,42,0.00,,SKC,0.00,VWS V14.00,2013-09-03 09:28:00,
2013-09-03 02:30:00,64.9,41.3,29.94,SE,135,0.0,0.0,42,0.00,,SKC,0.00,VWS V14.00,2013-09-03 09:30:00,
2013-09-03 02:31:00,64.9,41.3,29.94,SE,135,0.0,0.0,42,0.00,,SKC,0.00,VWS V14.00,2013-09-03 09:31:00,
2013-09-03 02:33:00,64.6,40.4,29.94,SE,135,0.0,0.0,41,0.00,,SKC,0.00,VWS V14.00,2013-09-03 09:33:00,
2013-09-03 02:35:00,64.6,41.0,29.94,SE,135,0.0,0.0,42,0.00,,SKC,0.00,VWS V14.00,2013-09-03 09:35:00,
2013-09-03 02:36:00,64.6,41.0,29.94,SSE,158,0.0,0.0,42,0.00,,SKC,0.00,VWS V14.00,2013-09-03 09:36:00,
2013-09-03 02:38:00,64.4,40.8,29.94,South,180,0.0,0.0,42,0.00,,SKC,0.00,VWS V14.00,2013-09-03 09:38:00,
2013-09-03 02:40:00,64.2,41.3,29.94,West,270,2.9,3.1,43,0.00,,SKC,0.00,VWS V14.00,2013-09-03 09:40:00,
2013-09-03 02:41:00,64.2,41.3,29.94,West,270,2.9,3.1,43,0.00,,SKC,0.00,VWS V14.00,2013-09-03 09:41:00,
2013-09-03 02:42:00,64.2,41.9,29.94,West,270,2.0,2.9,44,0.00,,SKC,0.00,VWS V14.00,2013-09-03 09:42:00,
2013-09-03 02:43:00,64.2,41.3,29.94,West,270,0.0,2.9,43,0.00,,SKC,0.00,VWS V14.00,2013-09-03 09:43:00,
2013-09-03 02:45:00,64.2,41.3,29.94,West,270,0.0,2.9,43,0.00,,SKC,0.00,VWS V14.00,2013-09-03 09:45:00,
2013-09-03 02:46:00,64.0,41.1,29.94,West,270,0.0,0.0,43,0.00,,SKC,0.00,VWS V14.00,2013-09-03 09:46:00,
2013-09-03 02:47:00,64.0,41.1,29.94,West,270,2.0,2.0,43,0.00,,SKC,0.00,VWS V14.00,2013-09-03 09:47:00,
2013-09-03 02:48:00,64.0,41.1,29.94,West,270,1.1,2.0,43,0.00,,SKC,0.00,VWS V14.00,2013-09-03 09:48:00,
2013-09-03 02:50:00,64.0,41.1,29.94,West,270,0.0,2.5,43,0.00,,SKC,0.00,VWS V14.00,2013-09-03 09:50:00,
2013-09-03 02:51:00,64.0,41.7,29.94,West,270,0.0,0.0,44,0.00,,SKC,0.00,VWS V14.00,2013-09-03 09:51:00,
2013-09-03 02:52:00,64.0,41.7,29.94,West,270,0.0,0.0,44,0.00,,SKC,0.00,VWS V14.00,2013-09-03 09:52:00,
2013-09-03 02:53:00,64.0,41.7,29.94,West,270,0.0,0.0,44,0.00,,SKC,0.00,VWS V14.00,2013-09-03 09:53:00,
2013-09-03 02:54:00,63.9,41.0,29.94,West,270,0.0,0.0,43,0.00,,SKC,0.00,VWS V14.00,2013-09-03 09:54:00,
2013-09-03 02:55:00,63.9,41.5,29.94,West,270,0.0,0.0,44,0.00,,SKC,0.00,VWS V14.00,2013-09-03 09:55:00,
2013-09-03 02:56:00,63.9,41.0,29.94,West,270,0.0,0.0,43,0.00,,SKC,0.00,VWS V14.00,2013-09-03 09:56:00,
2013-09-03 02:57:00,63.9,41.0,29.94,West,270,0.0,0.0,43,0.00,,SKC,0.00,VWS V14.00,2013-09-03 09:57:00,
2013-09-03 02:58:00,63.9,41.0,29.94,West,270,0.0,0.0,43,0.00,,SKC,0.00,VWS V14.00,2013-09-03 09:58:00,
2013-09-03 03:00:00,63.7,40.8,29.94,West,270,0.0,0.0,43,0.00,,SKC,0.00,VWS V14.00,2013-09-03 10:00:00,
2013-09-03 03:01:00,63.7,40.8,29.94,West,270,0.0,0.0,43,0.00,,SKC,0.00,VWS V14.00,2013-09-03 10:01:00,
2013-09-03 03:02:00,63.7,40.8,29.94,West,270,0.0,0.0,43,0.00,,SKC,0.00,VWS V14.00,2013-09-03 10:02:00,
2013-09-03 03:03:00,63.7,40.8,29.94,West,270,0.0,0.0,43,0.00,,SKC,0.00,VWS V14.00,2013-09-03 10:03:00,
2013-09-03 03:05:00,63.7,41.4,29.94,West,270,0.0,0.0,44,0.00,,SKC,0.00,VWS V14.00,2013-09-03 10:05:00,
2013-09-03 03:06:00,63.5,41.2,29.94,West,270,0.0,0.0,44,0.00,,SKC,0.00,VWS V14.00,2013-09-03 10:06:00,
2013-09-03 03:08:00,63.5,41.2,29.94,West,270,0.0,0.0,44,0.00,,SKC,0.00,VWS V14.00,2013-09-03 10:08:00,
2013-09-03 03:09:00,63.5,41.2,29.94,West,270,0.0,0.0,44,0.00,,SKC,0.00,VWS V14.00,2013-09-03 10:09:00,
2013-09-03 03:10:00,63.5,41.2,29.94,West,270,0.0,0.0,44,0.00,,SKC,0.00,VWS V14.00,2013-09-03 10:10:00,
2013-09-03 03:11:00,63.3,41.1,29.94,West,270,0.0,0.0,44,0.00,,SKC,0.00,VWS V14.00,2013-09-03 10:11:00,
2013-09-03 03:12:00,63.3,41.1,29.94,West,270,0.0,0.0,44,0.00,,SKC,0.00,VWS V14.00,2013-09-03 10:12:00,
2013-09-03 03:13:00,63.3,41.1,29.94,West,270,0.0,0.0,44,0.00,,SKC,0.00,VWS V14.00,2013-09-03 10:13:00,
2013-09-03 03:14:00,63.3,41.1,29.94,West,270,0.0,0.0,44,0.00,,SKC,0.00,VWS V14.00,2013-09-03 10:14:00,
2013-09-03 03:15:00,63.3,41.1,29.94,West,270,0.0,0.0,44,0.00,,SKC,0.00,VWS V14.00,2013-09-03 10:15:00,
2013-09-03 03:17:00,63.3,41.1,29.94,West,270,0.0,0.0,44,0.00,,SKC,0.00,VWS V14.00,2013-09-03 10:17:00,
2013-09-03 03:18:00,63.1,40.9,29.94,West,270,0.0,0.0,44,0.00,,SKC,0.00,VWS V14.00,2013-09-03 10:18:00,
2013-09-03 03:19:00,63.1,40.9,29.94,West,270,0.0,0.0,44,0.00,,SKC,0.00,VWS V14.00,2013-09-03 10:19:00,
2013-09-03 03:20:00,63.1,41.5,29.94,West,270,0.0,0.0,45,0.00,,SKC,0.00,VWS V14.00,2013-09-03 10:20:00,
2013-09-03 03:22:00,63.1,41.5,29.94,West,270,0.0,0.0,45,0.00,,SKC,0.00,VWS V14.00,2013-09-03 10:22:00,
2013-09-03 03:23:00,63.0,41.3,29.94,West,270,0.0,0.0,45,0.00,,SKC,0.00,VWS V14.00,2013-09-03 10:23:00,
2013-09-03 03:24:00,63.0,40.7,29.94,West,270,0.0,0.0,44,0.00,,SKC,0.00,VWS V14.00,2013-09-03 10:24:00,
2013-09-03 03:25:00,63.0,40.7,29.94,West,270,0.0,0.0,44,0.00,,SKC,0.00,VWS V14.00,2013-09-03 10:25:00,
2013-09-03 03:27:00,62.8,40.6,29.94,West,270,0.0,0.0,44,0.00,,SKC,0.00,VWS V14.00,2013-09-03 10:27:00,
2013-09-03 03:29:00,62.8,41.2,29.94,West,270,0.0,0.0,45,0.00,,SKC,0.00,VWS V14.00,2013-09-03 10:29:00,
2013-09-03 03:30:00,62.8,41.2,29.94,West,270,0.0,0.0,45,0.00,,SKC,0.00,VWS V14.00,2013-09-03 10:30:00,
2013-09-03 03:32:00,62.8,41.2,29.94,West,270,0.0,0.0,45,0.00,,SKC,0.00,VWS V14.00,2013-09-03 10:32:00,
2013-09-03 03:34:00,62.8,41.2,29.94,West,270,0.0,0.0,45,0.00,,SKC,0.00,VWS V14.00,2013-09-03 10:34:00,
2013-09-03 03:35:00,63.0,41.3,29.94,West,270,0.0,0.0,45,0.00,,SKC,0.00,VWS V14.00,2013-09-03 10:35:00,
2013-09-03 03:37:00,63.0,41.3,29.94,West,270,0.0,0.0,45,0.00,,SKC,0.00,VWS V14.00,2013-09-03 10:37:00,
2013-09-03 03:39:00,63.0,41.3,29.94,West,270,0.0,0.0,45,0.00,,SKC,0.00,VWS V14.00,2013-09-03 10:39:00,
2013-09-03 03:40:00,63.0,41.3,29.94,West,270,0.0,0.0,45,0.00,,SKC,0.00,VWS V14.00,2013-09-03 10:40:00,
2013-09-03 03:43:00,62.6,41.0,29.94,West,270,0.0,0.0,45,0.00,,SKC,0.00,VWS V14.00,2013-09-03 10:43:00,
2013-09-03 03:44:00,62.6,41.0,29.94,West,270,0.0,0.0,45,0.00,,SKC,0.00,VWS V14.00,2013-09-03 10:44:00,
2013-09-03 03:45:00,62.6,41.0,29.94,West,270,0.0,0.0,45,0.00,,SKC,0.00,VWS V14.00,2013-09-03 10:45:00,
2013-09-03 03:48:00,62.6,41.0,29.94,West,270,0.0,0.0,45,0.00,,SKC,0.00,VWS V14.00,2013-09-03 10:48:00,
2013-09-03 03:49:00,62.6,42.1,29.94,West,270,2.0,2.0,47,0.00,,SKC,0.00,VWS V14.00,2013-09-03 10:49:00,
2013-09-03 03:50:00,62.6,42.1,29.94,West,270,2.0,2.0,47,0.00,,SKC,0.00,VWS V14.00,2013-09-03 10:50:00,
2013-09-03 03:51:00,62.6,42.1,29.94,North,0,2.7,2.7,47,0.00,,SKC,0.00,VWS V14.00,2013-09-03 10:51:00,
2013-09-03 03:53:00,62.6,42.1,29.94,North,0,0.0,2.7,47,0.00,,SKC,0.00,VWS V14.00,2013-09-03 10:53:00,
2013-09-03 03:54:00,62.6,42.1,29.94,North,0,0.0,2.7,47,0.00,,SKC,0.00,VWS V14.00,2013-09-03 10:54:00,
2013-09-03 03:55:00,62.6,42.1,29.94,North,0,0.0,2.7,47,0.00,,SKC,0.00,VWS V14.00,2013-09-03 10:55:00,
2013-09-03 03:56:00,62.4,41.9,29.94,North,0,0.0,0.0,47,0.00,,SKC,0.00,VWS V14.00,2013-09-03 10:56:00,
2013-09-03 03:58:00,62.4,41.4,29.94,North,0,0.0,0.0,46,0.00,,SKC,0.00,VWS V14.00,2013-09-03 10:58:00,
2013-09-03 04:00:00,62.4,41.4,29.94,North,0,0.0,0.0,46,0.00,,SKC,0.00,VWS V14.00,2013-09-03 11:00:00,
2013-09-03 04:01:00,62.4,41.4,29.94,North,0,0.0,0.0,46,0.00,,SKC,0.00,VWS V14.00,2013-09-03 11:01:00,
2013-09-03 04:02:00,62.4,41.4,29.94,NW,315,0.0,3.1,46,0.00,,SKC,0.00,VWS V14.00,2013-09-03 11:02:00,
2013-09-03 04:03:00,62.4,41.4,29.94,NW,315,0.0,3.1,46,0.00,,SKC,0.00,VWS V14.00,2013-09-03 11:03:00,
2013-09-03 04:05:00,63.0,42.4,29.94,North,0,2.0,3.1,47,0.00,,SKC,0.00,VWS V14.00,2013-09-03 11:05:00,
2013-09-03 04:06:00,63.0,42.4,29.94,North,0,0.0,3.1,47,0.00,,SKC,0.00,VWS V14.00,2013-09-03 11:06:00,
2013-09-03 04:07:00,63.1,43.2,29.94,North,0,0.0,0.0,48,0.00,,SKC,0.00,VWS V14.00,2013-09-03 11:07:00,
2013-09-03 04:08:00,63.0,42.4,29.94,North,0,2.0,2.0,47,0.00,,SKC,0.00,VWS V14.00,2013-09-03 11:08:00,
2013-09-03 04:10:00,63.1,42.0,29.94,NNW,338,0.0,2.9,46,0.00,,SKC,0.00,VWS V14.00,2013-09-03 11:10:00,
2013-09-03 04:11:00,63.1,42.0,29.94,NNW,338,0.0,2.9,46,0.00,,SKC,0.00,VWS V14.00,2013-09-03 11:11:00,
2013-09-03 04:12:00,63.1,42.0,29.94,NNW,338,0.0,0.0,46,0.00,,SKC,0.00,VWS V14.00,2013-09-03 11:12:00,
2013-09-03 04:13:00,63.1,42.0,29.94,NNW,338,0.0,0.0,46,0.00,,SKC,0.00,VWS V14.00,2013-09-03 11:13:00,
2013-09-03 04:14:00,63.1,42.0,29.94,NNW,338,0.0,0.0,46,0.00,,SKC,0.00,VWS V14.00,2013-09-03 11:14:00,
2013-09-03 04:15:00,63.0,41.3,29.94,North,0,0.0,0.0,45,0.00,,SKC,0.00,VWS V14.00,2013-09-03 11:15:00,
2013-09-03 04:16:00,63.0,41.3,29.94,North,0,0.0,0.0,45,0.00,,SKC,0.00,VWS V14.00,2013-09-03 11:16:00,
2013-09-03 04:17:00,63.0,41.3,29.94,North,0,0.0,0.0,45,0.00,,SKC,0.00,VWS V14.00,2013-09-03 11:17:00,
2013-09-03 04:18:00,62.8,41.2,29.94,North,0,0.0,0.0,45,0.00,,SKC,0.00,VWS V14.00,2013-09-03 11:18:00,
2013-09-03 04:19:00,62.8,41.2,29.94,North,0,0.0,0.0,45,0.00,,SKC,0.00,VWS V14.00,2013-09-03 11:19:00,
2013-09-03 04:20:00,62.8,40.6,29.94,North,0,0.0,0.0,44,0.00,,SKC,0.00,VWS V14.00,2013-09-03 11:20:00,
2013-09-03 04:21:00,62.8,40.6,29.94,North,0,0.0,0.0,44,0.00,,SKC,0.00,VWS V14.00,2013-09-03 11:21:00,
2013-09-03 04:22:00,62.6,40.4,29.94,North,0,0.0,0.0,44,0.00,,SKC,0.00,VWS V14.00,2013-09-03 11:22:00,
2013-09-03 04:24:00,62.6,40.4,29.94,North,0,0.0,0.0,44,0.00,,SKC,0.00,VWS V14.00,2013-09-03 11:24:00,
2013-09-03 04:25:00,62.6,40.4,29.94,North,0,0.0,0.0,44,0.00,,SKC,0.00,VWS V14.00,2013-09-03 11:25:00,
2013-09-03 04:26:00,62.6,40.4,29.94,North,0,0.0,0.0,44,0.00,,SKC,0.00,VWS V14.00,2013-09-03 11:26:00,
2013-09-03 04:27:00,62.4,40.8,29.94,North,0,0.0,0.0,45,0.00,,SKC,0.00,VWS V14.00,2013-09-03 11:27:00,
2013-09-03 04:29:00,62.4,40.8,29.94,North,0,0.0,0.0,45,0.00,,SKC,0.00,VWS V14.00,2013-09-03 11:29:00,
2013-09-03 04:30:00,62.2,40.7,29.94,North,0,0.0,0.0,45,0.00,,SKC,0.00,VWS V14.00,2013-09-03 11:30:00,
2013-09-03 04:31:00,62.2,40.7,29.94,North,0,0.0,0.0,45,0.00,,SKC,0.00,VWS V14.00,2013-09-03 11:31:00,
2013-09-03 04:33:00,62.2,40.7,29.94,North,0,0.0,0.0,45,0.00,,SKC,0.00,VWS V14.00,2013-09-03 11:33:00,
2013-09-03 04:34:00,62.1,40.5,29.94,North,0,0.0,0.0,45,0.00,,SKC,0.00,VWS V14.00,2013-09-03 11:34:00,
2013-09-03 04:35:00,62.1,40.5,29.94,North,0,0.0,0.0,45,0.00,,SKC,0.00,VWS V14.00,2013-09-03 11:35:00,
2013-09-03 04:36:00,62.1,40.5,29.94,North,0,0.0,0.0,45,0.00,,SKC,0.00,VWS V14.00,2013-09-03 11:36:00,
2013-09-03 04:38:00,62.1,40.5,29.94,North,0,0.0,0.0,45,0.00,,SKC,0.00,VWS V14.00,2013-09-03 11:38:00,
2013-09-03 04:39:00,61.9,40.3,29.94,North,0,0.0,0.0,45,0.00,,SKC,0.00,VWS V14.00,2013-09-03 11:39:00,
2013-09-03 04:40:00,61.9,40.3,29.94,North,0,0.0,0.0,45,0.00,,SKC,0.00,VWS V14.00,2013-09-03 11:40:00,
2013-09-03 04:41:00,61.9,40.3,29.94,North,0,0.0,0.0,45,0.00,,SKC,0.00,VWS V14.00,2013-09-03 11:41:00,
2013-09-03 04:43:00,62.1,40.5,29.94,North,0,0.0,0.0,45,0.00,,SKC,0.00,VWS V14.00,2013-09-03 11:43:00,
2013-09-03 04:44:00,62.1,40.5,29.94,North,0,0.0,0.0,45,0.00,,SKC,0.00,VWS V14.00,2013-09-03 11:44:00,
2013-09-03 04:45:00,62.1,40.5,29.94,North,0,0.0,0.0,45,0.00,,SKC,0.00,VWS V14.00,2013-09-03 11:45:00,
2013-09-03 04:46:00,62.1,40.5,29.94,North,0,0.0,0.0,45,0.00,,SKC,0.00,VWS V14.00,2013-09-03 11:46:00,
2013-09-03 04:49:00,61.9,39.8,29.94,North,0,0.9,0.9,44,0.00,,SKC,0.00,VWS V14.00,2013-09-03 11:49:00,
2013-09-03 04:50:00,61.9,39.8,29.94,North,0,0.0,0.9,44,0.00,,SKC,0.00,VWS V14.00,2013-09-03 11:50:00,
2013-09-03 04:51:00,61.9,39.8,29.94,North,0,0.0,0.0,44,0.00,,SKC,0.00,VWS V14.00,2013-09-03 11:51:00,
2013-09-03 04:54:00,61.7,39.6,29.94,North,0,0.0,0.0,44,0.00,,SKC,0.00,VWS V14.00,2013-09-03 11:54:00,
2013-09-03 04:55:00,61.7,39.6,29.94,North,0,0.0,0.0,44,0.00,,SKC,0.00,VWS V14.00,2013-09-03 11:55:00,
2013-09-03 04:56:00,61.7,39.6,29.94,North,0,0.0,0.0,44,0.00,,SKC,0.00,VWS V14.00,2013-09-03 11:56:00,
2013-09-03 05:00:00,61.7,39.6,29.94,North,0,0.0,0.0,44,0.00,,SKC,0.00,VWS V14.00,2013-09-03 12:00:00,
2013-09-03 05:01:00,61.5,39.4,29.94,North,0,0.0,0.0,44,0.00,,SKC,0.00,VWS V14.00,2013-09-03 12:01:00,
2013-09-03 05:02:00,61.5,39.4,29.94,North,0,0.0,0.0,44,0.00,,SKC,0.00,VWS V14.00,2013-09-03 12:02:00,
2013-09-03 05:05:00,61.3,39.3,29.94,North,0,0.0,0.0,44,0.00,,SKC,0.00,VWS V14.00,2013-09-03 12:05:00,
2013-09-03 05:06:00,61.3,39.3,29.94,North,0,0.0,0.0,44,0.00,,SKC,0.00,VWS V14.00,2013-09-03 12:06:00,
2013-09-03 05:07:00,61.3,39.3,29.94,North,0,0.0,0.0,44,0.00,,SKC,0.00,VWS V14.00,2013-09-03 12:07:00,
2013-09-03 05:10:00,61.3,39.3,29.94,North,0,0.0,0.0,44,0.00,,SKC,0.00,VWS V14.00,2013-09-03 12:10:00,
2013-09-03 05:11:00,61.3,39.3,29.94,North,0,0.0,0.0,44,0.00,,SKC,0.00,VWS V14.00,2013-09-03 12:11:00,
2013-09-03 05:12:00,61.3,39.3,29.94,North,0,0.0,0.0,44,0.00,,SKC,0.00,VWS V14.00,2013-09-03 12:12:00,
2013-09-03 05:13:00,61.2,39.1,29.94,North,0,0.0,0.0,44,0.00,,SKC,0.00,VWS V14.00,2013-09-03 12:13:00,
2013-09-03 05:15:00,61.0,38.9,29.94,North,0,0.0,0.0,44,0.00,,SKC,0.00,VWS V14.00,2013-09-03 12:15:00,
2013-09-03 05:16:00,61.0,38.9,29.94,North,0,0.0,0.0,44,0.00,,SKC,0.00,VWS V14.00,2013-09-03 12:16:00,
2013-09-03 05:17:00,60.8,38.8,29.94,North,0,0.0,0.0,44,0.00,,SKC,0.00,VWS V14.00,2013-09-03 12:17:00,
2013-09-03 05:18:00,60.6,39.2,29.94,North,0,0.0,0.0,45,0.00,,SKC,0.00,VWS V14.00,2013-09-03 12:18:00,
2013-09-03 05:21:00,60.6,39.2,29.94,North,0,0.0,0.0,45,0.00,,SKC,0.00,VWS V14.00,2013-09-03 12:21:00,
2013-09-03 05:22:00,60.6,39.2,29.94,North,0,0.0,0.0,45,0.00,,SKC,0.00,VWS V14.00,2013-09-03 12:22:00,
2013-09-03 05:23:00,60.6,39.2,29.94,North,0,0.0,0.0,45,0.00,,SKC,0.00,VWS V14.00,2013-09-03 12:23:00,
2013-09-03 05:25:00,60.3,38.8,29.94,North,0,0.0,0.0,45,0.00,,SKC,0.00,VWS V14.00,2013-09-03 12:25:00,
2013-09-03 05:26:00,60.3,38.8,29.94,North,0,0.0,0.0,45,0.00,,SKC,0.00,VWS V14.00,2013-09-03 12:26:00,
2013-09-03 05:27:00,60.3,38.8,29.94,North,0,0.0,0.0,45,0.00,,SKC,0.00,VWS V14.00,2013-09-03 12:27:00,
2013-09-03 05:29:00,60.1,38.7,29.94,North,0,0.0,0.0,45,0.00,,SKC,0.00,VWS V14.00,2013-09-03 12:29:00,
2013-09-03 05:30:00,60.1,38.7,29.94,North,0,0.0,0.0,45,0.00,,SKC,0.00,VWS V14.00,2013-09-03 12:30:00,
2013-09-03 05:31:00,60.1,38.7,29.94,North,0,0.0,0.0,45,0.00,,SKC,0.00,VWS V14.00,2013-09-03 12:31:00,
2013-09-03 05:32:00,60.1,38.7,29.94,North,0,0.0,0.0,45,0.00,,SKC,0.00,VWS V14.00,2013-09-03 12:32:00,
2013-09-03 05:34:00,60.1,38.7,29.94,North,0,0.0,0.0,45,0.00,,SKC,0.00,VWS V14.00,2013-09-03 12:34:00,
2013-09-03 05:35:00,59.9,39.1,29.94,North,0,0.0,0.0,46,0.00,,SKC,0.00,VWS V14.00,2013-09-03 12:35:00,
2013-09-03 05:36:00,59.9,39.1,29.94,North,0,0.0,0.0,46,0.00,,SKC,0.00,VWS V14.00,2013-09-03 12:36:00,
2013-09-03 05:37:00,59.9,39.1,29.94,North,0,0.0,0.0,46,0.00,,SKC,0.00,VWS V14.00,2013-09-03 12:37:00,
2013-09-03 05:39:00,59.5,38.2,29.94,North,0,0.0,0.0,45,0.00,,SKC,0.00,VWS V14.00,2013-09-03 12:39:00,
2013-09-03 05:40:00,59.5,38.2,29.94,North,0,0.0,0.0,45,0.00,,SKC,0.00,VWS V14.00,2013-09-03 12:40:00,
2013-09-03 05:41:00,59.5,38.2,29.94,North,0,0.0,0.0,45,0.00,,SKC,0.00,VWS V14.00,2013-09-03 12:41:00,
2013-09-03 05:42:00,59.5,38.2,29.94,North,0,0.0,0.0,45,0.00,,SKC,0.00,VWS V14.00,2013-09-03 12:42:00,
2013-09-03 05:43:00,59.5,38.2,29.94,North,0,0.0,0.0,45,0.00,,SKC,0.00,VWS V14.00,2013-09-03 12:43:00,
2013-09-03 05:45:00,59.4,38.6,29.91,West,270,0.0,2.2,46,0.00,,SKC,0.00,VWS V14.00,2013-09-03 12:45:00,
2013-09-03 05:46:00,59.4,38.6,29.91,West,270,0.0,0.0,46,0.00,,SKC,0.00,VWS V14.00,2013-09-03 12:46:00,
2013-09-03 05:47:00,59.2,38.4,29.91,West,270,0.0,0.0,46,0.00,,SKC,0.00,VWS V14.00,2013-09-03 12:47:00,
2013-09-03 05:48:00,59.2,38.4,29.91,West,270,0.0,0.0,46,0.00,,SKC,0.00,VWS V14.00,2013-09-03 12:48:00,
2013-09-03 05:50:00,59.2,38.4,29.91,West,270,0.0,0.0,46,0.00,,SKC,0.00,VWS V14.00,2013-09-03 12:50:00,
2013-09-03 05:51:00,59.2,38.4,29.91,West,270,0.0,0.0,46,0.00,,SKC,0.00,VWS V14.00,2013-09-03 12:51:00,
2013-09-03 05:52:00,59.0,38.3,29.91,West,270,0.0,0.0,46,0.00,,SKC,0.00,VWS V14.00,2013-09-03 12:52:00,
2013-09-03 05:53:00,59.0,38.3,29.91,West,270,0.0,0.0,46,0.00,,SKC,0.00,VWS V14.00,2013-09-03 12:53:00,
2013-09-03 05:55:00,59.0,38.3,29.91,West,270,0.0,0.0,46,0.00,,SKC,0.00,VWS V14.00,2013-09-03 12:55:00,
2013-09-03 05:56:00,58.8,38.7,29.91,West,270,0.0,0.0,47,0.00,,SKC,0.00,VWS V14.00,2013-09-03 12:56:00,
2013-09-03 05:57:00,58.8,38.7,29.91,West,270,0.0,0.0,47,0.00,,SKC,0.00,VWS V14.00,2013-09-03 12:57:00,
2013-09-03 05:58:00,58.8,38.7,29.94,West,270,0.0,0.0,47,0.00,,SKC,0.00,VWS V14.00,2013-09-03 12:58:00,
2013-09-03 06:00:00,58.8,38.7,29.94,West,270,0.0,0.0,47,0.00,,SKC,0.00,VWS V14.00,2013-09-03 13:00:00,
2013-09-03 06:01:00,58.8,38.7,29.94,West,270,0.0,0.0,47,0.00,,SKC,0.00,VWS V14.00,2013-09-03 13:01:00,
2013-09-03 06:02:00,58.8,38.7,29.94,West,270,0.0,0.0,47,0.00,,SKC,0.00,VWS V14.00,2013-09-03 13:02:00,
2013-09-03 06:03:00,59.0,38.3,29.94,West,270,0.0,0.0,46,0.00,,SKC,0.00,VWS V14.00,2013-09-03 13:03:00,
2013-09-03 06:05:00,58.8,38.7,29.94,West,270,0.0,0.0,47,0.00,,SKC,0.00,VWS V14.00,2013-09-03 13:05:00,
2013-09-03 06:07:00,58.8,38.7,29.94,West,270,0.0,0.0,47,0.00,,SKC,0.00,VWS V14.00,2013-09-03 13:07:00,
2013-09-03 06:08:00,58.8,38.7,29.94,West,270,0.0,0.0,47,0.00,,SKC,0.00,VWS V14.00,2013-09-03 13:08:00,
2013-09-03 06:10:00,58.8,39.2,29.94,West,270,0.0,0.0,48,0.00,,SKC,0.00,VWS V14.00,2013-09-03 13:10:00,
2013-09-03 06:11:00,58.8,39.2,29.94,West,270,0.0,0.0,48,0.00,,SKC,0.00,VWS V14.00,2013-09-03 13:11:00,
2013-09-03 06:12:00,58.8,39.2,29.94,West,270,0.0,0.0,48,0.00,,SKC,0.00,VWS V14.00,2013-09-03 13:12:00,
2013-09-03 06:13:00,58.8,39.2,29.94,West,270,0.0,0.0,48,0.00,,SKC,0.00,VWS V14.00,2013-09-03 13:13:00,
2013-09-03 06:15:00,59.0,39.4,29.94,West,270,0.0,0.0,48,0.00,,SKC,0.00,VWS V14.00,2013-09-03 13:15:00,
2013-09-03 06:16:00,59.0,39.4,29.94,West,270,0.0,0.0,48,0.00,,SKC,0.00,VWS V14.00,2013-09-03 13:16:00,
2013-09-03 06:17:00,59.0,39.4,29.94,West,270,0.0,0.0,48,0.00,,SKC,0.00,VWS V14.00,2013-09-03 13:17:00,
2013-09-03 06:18:00,59.0,39.4,29.94,West,270,0.0,0.0,48,0.00,,SKC,0.00,VWS V14.00,2013-09-03 13:18:00,
2013-09-03 06:20:00,58.8,39.2,29.94,West,270,0.0,0.0,48,0.00,,SKC,0.00,VWS V14.00,2013-09-03 13:20:00,
2013-09-03 06:22:00,58.8,39.2,29.94,West,270,0.0,0.0,48,0.00,,SKC,0.00,VWS V14.00,2013-09-03 13:22:00,
2013-09-03 06:23:00,58.8,39.2,29.94,West,270,0.0,0.0,48,0.00,,SKC,0.00,VWS V14.00,2013-09-03 13:23:00,
2013-09-03 06:24:00,58.6,39.0,29.94,West,270,0.0,0.0,48,0.00,,SKC,0.00,VWS V14.00,2013-09-03 13:24:00,
2013-09-03 06:25:00,58.6,39.0,29.94,West,270,0.0,0.0,48,0.00,,SKC,0.00,VWS V14.00,2013-09-03 13:25:00,
2013-09-03 06:27:00,58.6,39.0,29.94,West,270,0.0,0.0,48,0.00,,SKC,0.00,VWS V14.00,2013-09-03 13:27:00,
2013-09-03 06:28:00,58.5,38.9,29.94,West,270,0.0,0.0,48,0.00,,SKC,0.00,VWS V14.00,2013-09-03 13:28:00,
2013-09-03 06:29:00,58.5,38.9,29.94,West,270,0.0,0.0,48,0.00,,SKC,0.00,VWS V14.00,2013-09-03 13:29:00,
2013-09-03 06:30:00,58.5,38.9,29.94,West,270,0.0,0.0,48,0.00,,SKC,0.00,VWS V14.00,2013-09-03 13:30:00,
2013-09-03 06:32:00,58.6,39.0,29.94,West,270,0.0,0.0,48,0.00,,SKC,0.00,VWS V14.00,2013-09-03 13:32:00,
2013-09-03 06:33:00,58.5,38.9,29.94,West,270,0.0,0.0,48,0.00,,SKC,0.00,VWS V14.00,2013-09-03 13:33:00,
2013-09-03 06:34:00,58.5,38.9,29.94,West,270,0.0,0.0,48,0.00,,SKC,0.00,VWS V14.00,2013-09-03 13:34:00,
2013-09-03 06:35:00,58.5,38.9,29.94,West,270,0.0,0.0,48,0.00,,SKC,0.00,VWS V14.00,2013-09-03 13:35:00,
2013-09-03 06:38:00,58.5,38.9,29.94,West,270,0.0,0.0,48,0.00,,SKC,0.00,VWS V14.00,2013-09-03 13:38:00,
2013-09-03 06:39:00,58.5,38.9,29.94,West,270,0.0,0.0,48,0.00,,SKC,0.00,VWS V14.00,2013-09-03 13:39:00,
2013-09-03 06:40:00,58.5,38.9,29.94,West,270,0.0,0.0,48,0.00,,SKC,0.00,VWS V14.00,2013-09-03 13:40:00,
2013-09-03 06:43:00,58.5,38.3,29.94,West,270,0.0,0.0,47,0.00,,SKC,0.00,VWS V14.00,2013-09-03 13:43:00,
2013-09-03 06:44:00,58.5,38.3,29.94,West,270,0.0,0.0,47,0.00,,SKC,0.00,VWS V14.00,2013-09-03 13:44:00,
2013-09-03 06:45:00,58.5,38.3,29.94,West,270,0.0,0.0,47,0.00,,SKC,0.00,VWS V14.00,2013-09-03 13:45:00,
2013-09-03 06:48:00,58.6,39.0,29.94,West,270,0.0,0.0,48,0.00,,SKC,0.00,VWS V14.00,2013-09-03 13:48:00,
2013-09-03 06:49:00,58.8,39.2,29.94,West,270,0.0,0.0,48,0.00,,SKC,0.00,VWS V14.00,2013-09-03 13:49:00,
2013-09-03 06:50:00,58.8,39.2,29.94,West,270,0.0,0.0,48,0.00,,SKC,0.00,VWS V14.00,2013-09-03 13:50:00,
2013-09-03 06:51:00,58.8,39.2,29.94,West,270,0.0,0.0,48,0.00,,SKC,0.00,VWS V14.00,2013-09-03 13:51:00,
2013-09-03 06:53:00,59.2,39.0,29.94,West,270,0.0,0.0,47,0.00,,SKC,0.00,VWS V14.00,2013-09-03 13:53:00,
2013-09-03 06:54:00,59.2,39.0,29.94,West,270,0.0,0.0,47,0.00,,SKC,0.00,VWS V14.00,2013-09-03 13:54:00,
2013-09-03 06:55:00,59.5,39.3,29.94,West,270,0.0,0.0,47,0.00,,SKC,0.00,VWS V14.00,2013-09-03 13:55:00,
2013-09-03 06:57:00,59.9,39.6,29.94,West,270,0.0,0.0,47,0.00,,SKC,0.00,VWS V14.00,2013-09-03 13:57:00,
2013-09-03 06:58:00,60.1,39.8,29.94,West,270,0.0,0.0,47,0.00,,SKC,0.00,VWS V14.00,2013-09-03 13:58:00,
2013-09-03 06:59:00,60.1,39.8,29.94,West,270,0.0,0.0,47,0.00,,SKC,0.00,VWS V14.00,2013-09-03 13:59:00,
2013-09-03 07:00:00,60.6,40.8,29.94,West,270,0.0,0.0,48,0.00,,SKC,0.00,VWS V14.00,2013-09-03 14:00:00,
2013-09-03 07:02:00,60.6,40.8,29.94,West,270,0.0,0.0,48,0.00,,SKC,0.00,VWS V14.00,2013-09-03 14:02:00,
2013-09-03 07:03:00,61.5,41.1,29.94,West,270,0.0,0.0,47,0.00,,SKC,0.00,VWS V14.00,2013-09-03 14:03:00,
2013-09-03 07:04:00,61.7,41.3,29.94,West,270,0.0,0.0,47,0.00,,SKC,0.00,VWS V14.00,2013-09-03 14:04:00,
2013-09-03 07:05:00,61.9,41.5,29.94,West,270,0.0,0.0,47,0.00,,SKC,0.00,VWS V14.00,2013-09-03 14:05:00,
2013-09-03 07:07:00,61.9,41.5,29.94,West,270,0.0,0.0,47,0.00,,SKC,0.00,VWS V14.00,2013-09-03 14:07:00,
2013-09-03 07:08:00,61.9,41.5,29.94,West,270,0.0,0.0,47,0.00,,SKC,0.00,VWS V14.00,2013-09-03 14:08:00,
2013-09-03 07:09:00,61.9,41.5,29.94,West,270,0.0,0.0,47,0.00,,SKC,0.00,VWS V14.00,2013-09-03 14:09:00,
2013-09-03 07:10:00,63.1,42.0,29.94,West,270,0.0,0.0,46,0.00,,SKC,0.00,VWS V14.00,2013-09-03 14:10:00,
2013-09-03 07:11:00,63.1,42.0,29.94,West,270,0.0,0.0,46,0.00,,SKC,0.00,VWS V14.00,2013-09-03 14:11:00,
2013-09-03 07:12:00,63.1,42.0,29.94,West,270,0.0,0.0,46,0.00,,SKC,0.00,VWS V14.00,2013-09-03 14:12:00,
2013-09-03 07:13:00,63.1,42.0,29.94,West,270,0.0,0.0,46,0.00,,SKC,0.00,VWS V14.00,2013-09-03 14:13:00,
2013-09-03 07:14:00,63.1,42.0,29.94,West,270,0.0,0.0,46,0.00,,SKC,0.00,VWS V14.00,2013-09-03 14:14:00,
2013-09-03 07:15:00,63.1,42.0,29.94,West,270,0.0,0.0,46,0.00,,SKC,0.00,VWS V14.00,2013-09-03 14:15:00,
2013-09-03 07:16:00,64.4,42.6,29.94,West,270,0.0,0.0,45,0.00,,SKC,0.00,VWS V14.00,2013-09-03 14:16:00,
2013-09-03 07:17:00,64.4,42.6,29.94,West,270,0.0,0.0,45,0.00,,SKC,0.00,VWS V14.00,2013-09-03 14:17:00,
2013-09-03 07:18:00,64.4,42.6,29.94,West,270,0.0,0.0,45,0.00,,SKC,0.00,VWS V14.00,2013-09-03 14:18:00,
2013-09-03 07:20:00,64.4,42.6,29.94,West,270,0.0,0.0,45,0.00,,SKC,0.00,VWS V14.00,2013-09-03 14:20:00,
2013-09-03 07:21:00,64.4,42.6,29.94,West,270,0.0,0.0,45,0.00,,SKC,0.00,VWS V14.00,2013-09-03 14:21:00,
2013-09-03 07:23:00,64.6,42.2,29.94,West,270,0.0,0.0,44,0.00,,SKC,0.00,VWS V14.00,2013-09-03 14:23:00,
2013-09-03 07:25:00,64.6,42.2,29.94,West,270,0.0,0.0,44,0.00,,SKC,0.00,VWS V14.00,2013-09-03 14:25:00,
2013-09-03 07:26:00,64.6,42.2,29.94,West,270,0.0,0.0,44,0.00,,SKC,0.00,VWS V14.00,2013-09-03 14:26:00,
2013-09-03 07:27:00,64.9,41.9,29.94,West,270,0.0,0.0,43,0.00,,SKC,0.00,VWS V14.00,2013-09-03 14:27:00,
2013-09-03 07:28:00,64.9,41.9,29.94,West,270,0.0,0.0,43,0.00,,SKC,0.00,VWS V14.00,2013-09-03 14:28:00,
2013-09-03 07:29:00,65.1,42.1,29.94,West,270,0.0,0.0,43,0.00,,SKC,0.00,VWS V14.00,2013-09-03 14:29:00,
2013-09-03 07:30:00,65.1,42.1,29.94,West,270,0.0,0.0,43,0.00,,SKC,0.00,VWS V14.00,2013-09-03 14:30:00,
2013-09-03 07:31:00,65.1,42.1,29.94,West,270,0.0,0.0,43,0.00,,SKC,0.00,VWS V14.00,2013-09-03 14:31:00,
2013-09-03 07:32:00,65.1,42.1,29.94,West,270,0.0,0.0,43,0.00,,SKC,0.00,VWS V14.00,2013-09-03 14:32:00,
2013-09-03 07:33:00,65.1,42.1,29.94,West,270,0.0,0.0,43,0.00,,SKC,0.00,VWS V14.00,2013-09-03 14:33:00,
2013-09-03 07:34:00,65.1,42.1,29.94,West,270,0.0,0.0,43,0.00,,SKC,0.00,VWS V14.00,2013-09-03 14:34:00,
2013-09-03 07:35:00,65.1,42.1,29.94,WNW,292,0.0,0.0,43,0.00,,SKC,0.00,VWS V14.00,2013-09-03 14:35:00,
2013-09-03 07:36:00,65.1,42.1,29.94,WNW,292,0.0,0.0,43,0.00,,SKC,0.00,VWS V14.00,2013-09-03 14:36:00,
2013-09-03 07:37:00,65.1,42.1,29.94,West,270,0.0,0.0,43,0.00,,SKC,0.00,VWS V14.00,2013-09-03 14:37:00,
2013-09-03 07:38:00,65.1,42.1,29.94,West,270,0.0,0.0,43,0.00,,SKC,0.00,VWS V14.00,2013-09-03 14:38:00,
2013-09-03 07:39:00,65.7,41.3,29.94,West,270,0.0,0.0,41,0.00,,SKC,0.00,VWS V14.00,2013-09-03 14:39:00,
2013-09-03 07:40:00,65.7,41.3,29.94,West,270,0.0,0.0,41,0.00,,SKC,0.00,VWS V14.00,2013-09-03 14:40:00,
2013-09-03 07:41:00,65.7,41.3,29.94,West,270,0.0,0.0,41,0.00,,SKC,0.00,VWS V14.00,2013-09-03 14:41:00,
2013-09-03 07:42:00,65.7,41.3,29.94,West,270,0.0,0.0,41,0.00,,SKC,0.00,VWS V14.00,2013-09-03 14:42:00,
2013-09-03 07:43:00,65.7,40.7,29.94,West,270,2.9,2.9,40,0.00,,SKC,0.00,VWS V14.00,2013-09-03 14:43:00,
2013-09-03 07:44:00,65.7,40.7,29.94,West,270,2.9,2.9,40,0.00,,SKC,0.00,VWS V14.00,2013-09-03 14:44:00,
2013-09-03 07:45:00,65.8,40.9,29.94,West,270,2.7,2.9,40,0.00,,SKC,0.00,VWS V14.00,2013-09-03 14:45:00,
2013-09-03 07:46:00,65.8,40.9,29.94,West,270,2.7,2.9,40,0.00,,SKC,0.00,VWS V14.00,2013-09-03 14:46:00,
2013-09-03 07:47:00,65.8,40.9,29.94,West,270,2.7,2.9,40,0.00,,SKC,0.00,VWS V14.00,2013-09-03 14:47:00,
2013-09-03 07:49:00,66.4,40.7,29.94,West,270,0.0,2.9,39,0.00,,SKC,0.00,VWS V14.00,2013-09-03 14:49:00,
2013-09-03 07:50:00,66.4,40.7,29.94,West,270,0.0,2.9,39,0.00,,SKC,0.00,VWS V14.00,2013-09-03 14:50:00,
2013-09-03 07:51:00,66.4,40.7,29.94,West,270,0.0,2.9,39,0.00,,SKC,0.00,VWS V14.00,2013-09-03 14:51:00,
2013-09-03 07:52:00,66.7,41.0,29.94,WSW,248,3.1,3.1,39,0.00,,SKC,0.00,VWS V14.00,2013-09-03 14:52:00,
2013-09-03 07:53:00,67.1,40.7,29.94,WSW,248,3.1,3.1,38,0.00,,SKC,0.00,VWS V14.00,2013-09-03 14:53:00,
2013-09-03 07:54:00,67.3,40.8,29.94,SW,225,1.6,3.1,38,0.00,,SKC,0.00,VWS V14.00,2013-09-03 14:54:00,
2013-09-03 07:55:00,67.6,41.2,29.94,SW,225,2.0,3.1,38,0.00,,SKC,0.00,VWS V14.00,2013-09-03 14:55:00,
2013-09-03 07:56:00,67.6,41.2,29.94,SW,225,2.0,3.1,38,0.00,,SKC,0.00,VWS V14.00,2013-09-03 14:56:00,
2013-09-03 07:57:00,68.7,42.1,29.94,SW,225,0.0,2.0,38,0.00,,SKC,0.00,VWS V14.00,2013-09-03 14:57:00,
2013-09-03 07:58:00,69.1,42.4,29.94,SW,225,0.0,2.0,38,0.00,,SKC,0.00,VWS V14.00,2013-09-03 14:58:00,
2013-09-03 08:00:00,69.6,42.2,29.94,SW,225,0.0,2.0,37,0.00,,SKC,0.00,VWS V14.00,2013-09-03 15:00:00,
2013-09-03 08:01:00,69.6,42.2,29.94,SW,225,0.0,2.0,37,0.00,,SKC,0.00,VWS V14.00,2013-09-03 15:01:00,
2013-09-03 08:03:00,69.6,42.2,29.94,WSW,248,3.6,3.6,37,0.00,,SKC,0.00,VWS V14.00,2013-09-03 15:03:00,
2013-09-03 08:04:00,69.6,42.2,29.94,SW,225,2.9,3.6,37,0.00,,SKC,0.00,VWS V14.00,2013-09-03 15:04:00,
2013-09-03 08:05:00,69.6,42.2,29.94,SW,225,3.1,3.6,37,0.00,,SKC,0.00,VWS V14.00,2013-09-03 15:05:00,
2013-09-03 08:06:00,69.6,42.2,29.94,West,270,0.0,0.0,37,0.00,,SKC,0.00,VWS V14.00,2013-09-03 15:06:00,
2013-09-03 08:07:00,69.6,42.2,29.94,West,270,0.0,0.0,37,0.00,,SKC,0.00,VWS V14.00,2013-09-03 15:07:00,
2013-09-03 08:09:00,70.3,40.7,29.94,SW,225,2.0,3.1,34,0.00,,SKC,0.00,VWS V14.00,2013-09-03 15:09:00,
2013-09-03 08:10:00,70.3,40.7,29.94,SW,225,1.3,3.1,34,0.00,,SKC,0.00,VWS V14.00,2013-09-03 15:10:00,
2013-09-03 08:11:00,70.3,40.7,29.94,WSW,248,3.6,3.6,34,0.00,,SKC,0.00,VWS V14.00,2013-09-03 15:11:00,
2013-09-03 08:12:00,70.3,40.7,29.94,WSW,248,2.9,2.9,34,0.00,,SKC,0.00,VWS V14.00,2013-09-03 15:12:00,
2013-09-03 08:13:00,70.3,40.7,29.94,WSW,248,0.0,2.9,34,0.00,,SKC,0.00,VWS V14.00,2013-09-03 15:13:00,
2013-09-03 08:14:00,72.7,41.2,29.94,WSW,248,2.9,2.9,32,0.00,,SKC,0.00,VWS V14.00,2013-09-03 15:14:00,
2013-09-03 08:15:00,72.7,41.2,29.94,SW,225,1.1,2.9,32,0.00,,SKC,0.00,VWS V14.00,2013-09-03 15:15:00,
2013-09-03 08:16:00,72.7,41.2,29.97,SW,225,2.2,3.1,32,0.00,,SKC,0.00,VWS V14.00,2013-09-03 15:16:00,
2013-09-03 08:17:00,72.7,41.2,29.97,SW,225,2.7,3.1,32,0.00,,SKC,0.00,VWS V14.00,2013-09-03 15:17:00,
2013-09-03 08:20:00,73.6,41.1,29.97,SW,225,1.6,3.4,31,0.00,,SKC,0.00,VWS V14.00,2013-09-03 15:20:00,
2013-09-03 08:21:00,73.8,41.3,29.97,SW,225,0.0,1.6,31,0.00,,SKC,0.00,VWS V14.00,2013-09-03 15:21:00,
2013-09-03 08:22:00,73.8,41.3,29.97,West,270,1.1,1.6,31,0.00,,SKC,0.00,VWS V14.00,2013-09-03 15:22:00,
2013-09-03 08:24:00,73.8,41.3,29.97,West,270,0.0,2.9,31,0.00,,SKC,0.00,VWS V14.00,2013-09-03 15:24:00,
2013-09-03 08:25:00,73.8,41.3,29.97,West,270,0.0,2.9,31,0.00,,SKC,0.00,VWS V14.00,2013-09-03 15:25:00,
2013-09-03 08:26:00,73.8,41.3,29.97,West,270,2.5,2.7,31,0.00,,SKC,0.00,VWS V14.00,2013-09-03 15:26:00,
2013-09-03 08:27:00,73.8,41.3,29.97,West,270,2.7,2.7,31,0.00,,SKC,0.00,VWS V14.00,2013-09-03 15:27:00,
2013-09-03 08:29:00,76.5,41.9,29.97,WNW,292,3.1,3.1,29,0.00,,SKC,0.00,VWS V14.00,2013-09-03 15:29:00,
2013-09-03 08:30:00,76.8,41.3,29.97,NW,315,2.5,4.0,28,0.00,,SKC,0.00,VWS V14.00,2013-09-03 15:30:00,
2013-09-03 08:32:00,76.8,41.3,29.97,WNW,292,2.9,2.9,28,0.00,,SKC,0.00,VWS V14.00,2013-09-03 15:32:00,
2013-09-03 08:33:00,77.4,40.8,29.97,WNW,292,0.0,2.9,27,0.00,,SKC,0.00,VWS V14.00,2013-09-03 15:33:00,
2013-09-03 08:35:00,78.1,40.4,29.97,West,270,0.0,3.4,26,0.00,,SKC,0.00,VWS V14.00,2013-09-03 15:35:00,
2013-09-03 08:37:00,78.8,41.0,29.97,West,270,0.0,0.0,26,0.00,,SKC,0.00,VWS V14.00,2013-09-03 15:37:00,
2013-09-03 08:40:00,79.3,39.5,29.97,NW,315,1.3,2.9,24,0.00,,SKC,0.00,VWS V14.00,2013-09-03 15:40:00,
2013-09-03 08:41:00,79.3,39.5,29.97,NW,315,3.6,3.6,24,0.00,,SKC,0.00,VWS V14.00,2013-09-03 15:41:00,
2013-09-03 08:42:00,79.2,38.2,29.97,North,0,2.5,3.6,23,0.00,,SKC,0.00,VWS V14.00,2013-09-03 15:42:00,
2013-09-03 08:45:00,79.3,39.5,29.94,WNW,292,2.9,4.0,24,0.00,,SKC,0.00,VWS V14.00,2013-09-03 15:45:00,
2013-09-03 08:46:00,79.3,39.5,29.94,WNW,292,2.9,4.0,24,0.00,,SKC,0.00,VWS V14.00,2013-09-03 15:46:00,
2013-09-03 08:47:00,79.9,38.8,29.94,WNW,292,2.9,2.9,23,0.00,,SKC,0.00,VWS V14.00,2013-09-03 15:47:00,
2013-09-03 08:50:00,80.2,39.1,29.94,NW,315,0.0,3.1,23,0.00,,SKC,0.00,VWS V14.00,2013-09-03 15:50:00,
2013-09-03 08:51:00,80.2,39.1,29.94,NW,315,0.0,3.1,23,0.00,,SKC,0.00,VWS V14.00,2013-09-03 15:51:00,
2013-09-03 08:52:00,80.6,38.3,29.94,NNW,338,0.0,2.5,22,0.00,,SKC,0.00,VWS V14.00,2013-09-03 15:52:00,
2013-09-03 08:53:00,80.6,38.3,29.94,NNW,338,0.0,2.5,22,0.00,,SKC,0.00,VWS V14.00,2013-09-03 15:53:00,
2013-09-03 08:55:00,81.3,38.9,29.94,NW,315,2.7,2.9,22,0.00,,SKC,0.00,VWS V14.00,2013-09-03 15:55:00,
2013-09-03 08:56:00,81.3,38.9,29.94,NW,315,3.1,3.1,22,0.00,,SKC,0.00,VWS V14.00,2013-09-03 15:56:00,
2013-09-03 08:57:00,81.3,38.9,29.94,NW,315,3.1,3.1,22,0.00,,SKC,0.00,VWS V14.00,2013-09-03 15:57:00,
2013-09-03 08:58:00,81.3,38.9,29.94,NW,315,3.1,3.1,22,0.00,,SKC,0.00,VWS V14.00,2013-09-03 15:58:00,
2013-09-03 08:59:00,81.0,38.6,29.94,WNW,292,0.0,3.1,22,0.00,,SKC,0.00,VWS V14.00,2013-09-03 15:59:00,
2013-09-03 09:00:00,81.1,37.5,29.94,WNW,292,0.0,3.1,21,0.00,,SKC,0.00,VWS V14.00,2013-09-03 16:00:00,
2013-09-03 09:01:00,81.1,37.5,29.94,WNW,292,1.3,3.1,21,0.00,,SKC,0.00,VWS V14.00,2013-09-03 16:01:00,
2013-09-03 09:02:00,81.7,38.0,29.94,WNW,292,0.0,0.0,21,0.00,,SKC,0.00,VWS V14.00,2013-09-03 16:02:00,
2013-09-03 09:03:00,81.7,38.0,29.94,WNW,292,0.0,0.0,21,0.00,,SKC,0.00,VWS V14.00,2013-09-03 16:03:00,
2013-09-03 09:05:00,81.7,38.0,29.94,West,270,0.0,0.0,21,0.00,,SKC,0.00,VWS V14.00,2013-09-03 16:05:00,
2013-09-03 09:06:00,82.8,38.9,29.94,West,270,0.0,0.0,21,0.00,,SKC,0.00,VWS V14.00,2013-09-03 16:06:00,
2013-09-03 09:07:00,82.8,38.9,29.94,WNW,292,0.0,0.0,21,0.00,,SKC,0.00,VWS V14.00,2013-09-03 16:07:00,
2013-09-03 09:08:00,83.3,39.3,29.94,West,270,0.0,0.0,21,0.00,,SKC,0.00,VWS V14.00,2013-09-03 16:08:00,
2013-09-03 09:10:00,83.3,39.3,29.94,NNW,338,1.1,1.1,21,0.00,,SKC,0.00,VWS V14.00,2013-09-03 16:10:00,
2013-09-03 09:12:00,83.3,39.3,29.94,NNW,338,0.9,0.9,21,0.00,,SKC,0.00,VWS V14.00,2013-09-03 16:12:00,
2013-09-03 09:13:00,83.3,39.3,29.97,NNW,338,0.9,0.9,21,0.00,,SKC,0.00,VWS V14.00,2013-09-03 16:13:00,
2013-09-03 09:15:00,83.3,39.3,29.97,ENE,68,0.0,0.9,21,0.00,,SKC,0.00,VWS V14.00,2013-09-03 16:15:00,
2013-09-03 09:16:00,83.3,39.3,29.97,NNE,22,0.0,0.0,21,0.00,,SKC,0.00,VWS V14.00,2013-09-03 16:16:00,
2013-09-03 09:17:00,84.7,38.0,29.97,ENE,68,0.0,0.0,19,0.00,,SKC,0.00,VWS V14.00,2013-09-03 16:17:00,
2013-09-03 09:18:00,84.4,37.7,29.97,NNE,22,2.7,2.7,19,0.00,,SKC,0.00,VWS V14.00,2013-09-03 16:18:00,
2013-09-03 09:19:00,83.7,37.1,29.97,East,90,0.0,2.9,19,0.00,,SKC,0.00,VWS V14.00,2013-09-03 16:19:00,
2013-09-03 09:20:00,83.1,36.6,29.97,East,90,0.0,2.9,19,0.00,,SKC,0.00,VWS V14.00,2013-09-03 16:20:00,
2013-09-03 09:21:00,83.5,36.9,29.97,East,90,0.0,0.0,19,0.00,,SKC,0.00,VWS V14.00,2013-09-03 16:21:00,
2013-09-03 09:22:00,83.5,36.9,29.97,East,90,0.0,0.0,19,0.00,,SKC,0.00,VWS V14.00,2013-09-03 16:22:00,
2013-09-03 09:23:00,83.5,36.9,29.97,East,90,0.0,0.0,19,0.00,,SKC,0.00,VWS V14.00,2013-09-03 16:23:00,
2013-09-03 09:24:00,83.8,37.2,29.97,East,90,172.1,172.1,19,0.00,,SKC,0.00,VWS V14.00,2013-09-03 16:24:00,
2013-09-03 09:25:00,84.4,37.7,29.97,East,90,0.0,172.1,19,0.00,,SKC,0.00,VWS V14.00,2013-09-03 16:25:00,
2013-09-03 09:28:00,84.4,37.7,29.97,NNE,22,0.0,0.0,19,0.00,,SKC,0.00,VWS V14.00,2013-09-03 16:28:00,
2013-09-03 09:30:00,85.3,38.4,29.97,NNE,22,1.3,1.3,19,0.00,,SKC,0.00,VWS V14.00,2013-09-03 16:30:00,
2013-09-03 09:33:00,85.1,38.2,29.97,North,0,0.0,3.6,19,0.00,,SKC,0.00,VWS V14.00,2013-09-03 16:33:00,
2013-09-03 09:34:00,84.6,37.8,29.97,ENE,68,0.0,3.6,19,0.00,,SKC,0.00,VWS V14.00,2013-09-03 16:34:00,
2013-09-03 09:35:00,84.4,37.7,29.97,North,0,2.0,3.6,19,0.00,,SKC,0.00,VWS V14.00,2013-09-03 16:35:00,
2013-09-03 09:38:00,85.3,38.4,29.97,NNW,338,0.0,2.0,19,0.00,,SKC,0.00,VWS V14.00,2013-09-03 16:38:00,
2013-09-03 09:39:00,85.3,38.4,29.97,ENE,68,0.0,2.0,19,0.00,,SKC,0.00,VWS V14.00,2013-09-03 16:39:00,
2013-09-03 09:40:00,84.9,38.1,29.97,SE,135,1.3,2.5,19,0.00,,SKC,0.00,VWS V14.00,2013-09-03 16:40:00,
2013-09-03 09:41:00,84.9,38.1,29.97,SW,225,1.1,1.1,19,0.00,,SKC,0.00,VWS V14.00,2013-09-03 16:41:00,
2013-09-03 09:44:00,84.7,38.0,29.97,East,90,2.5,3.6,19,0.00,,SKC,0.00,VWS V14.00,2013-09-03 16:44:00,
2013-09-03 09:45:00,84.7,38.0,29.97,NE,45,3.1,3.6,19,0.00,,SKC,0.00,VWS V14.00,2013-09-03 16:45:00,
2013-09-03 09:47:00,86.0,37.6,29.97,NE,45,0.0,0.0,18,0.00,,SKC,0.00,VWS V14.00,2013-09-03 16:47:00,
2013-09-03 09:49:00,85.8,37.5,29.97,ESE,112,2.9,3.8,18,0.00,,SKC,0.00,VWS V14.00,2013-09-03 16:49:00,
2013-09-03 09:50:00,85.8,37.5,29.97,ESE,112,3.1,3.8,18,0.00,,SKC,0.00,VWS V14.00,2013-09-03 16:50:00,
2013-09-03 09:52:00,86.0,37.6,29.97,East,90,2.0,2.0,18,0.00,,SKC,0.00,VWS V14.00,2013-09-03 16:52:00,
2013-09-03 09:54:00,86.0,37.6,29.97,South,180,2.2,3.8,18,0.00,,SKC,0.00,VWS V14.00,2013-09-03 16:54:00,
2013-09-03 09:55:00,85.8,37.5,29.97,SE,135,3.8,4.0,18,0.00,,SKC,0.00,VWS V14.00,2013-09-03 16:55:00,
2013-09-03 09:56:00,85.6,37.3,29.97,SE,135,3.1,4.0,18,0.00,,SKC,0.00,VWS V14.00,2013-09-03 16:56:00,
2013-09-03 09:59:00,85.8,37.5,29.97,SE,135,2.5,4.0,18,0.00,,SKC,0.00,VWS V14.00,2013-09-03 16:59:00,
2013-09-03 10:00:00,86.0,37.6,29.97,SE,135,3.4,4.0,18,0.00,,SKC,0.00,VWS V14.00,2013-09-03 17:00:00,
2013-09-03 10:01:00,86.0,37.6,29.97,SE,135,3.4,4.0,18,0.00,,SKC,0.00,VWS V14.00,2013-09-03 17:01:00,
2013-09-03 10:05:00,87.3,38.6,29.97,South,180,0.0,3.4,18,0.00,,SKC,0.00,VWS V14.00,2013-09-03 17:05:00,
2013-09-03 10:06:00,87.3,38.6,29.97,South,180,0.0,3.4,18,0.00,,SKC,0.00,VWS V14.00,2013-09-03 17:06:00,
2013-09-03 10:10:00,88.2,34.7,29.97,NNE,22,2.7,2.9,15,0.00,,SKC,0.00,VWS V14.00,2013-09-03 17:10:00,
2013-09-03 10:11:00,88.2,34.7,29.97,North,0,2.0,2.0,15,0.00,,SKC,0.00,VWS V14.00,2013-09-03 17:11:00,
2013-09-03 10:12:00,88.2,34.7,29.97,NNW,338,1.1,2.2,15,0.00,,SKC,0.00,VWS V14.00,2013-09-03 17:12:00,
2013-09-03 10:15:00,90.5,36.6,29.97,NW,315,1.3,2.7,15,0.00,,SKC,0.00,VWS V14.00,2013-09-03 17:15:00,
2013-09-03 10:16:00,90.5,36.6,29.97,WNW,292,0.0,0.0,15,0.00,,SKC,0.00,VWS V14.00,2013-09-03 17:16:00,
2013-09-03 10:17:00,90.5,36.6,29.97,WNW,292,0.0,0.0,15,0.00,,SKC,0.00,VWS V14.00,2013-09-03 17:17:00,
2013-09-03 10:20:00,90.7,36.7,29.97,SE,135,2.9,3.4,15,0.00,,SKC,0.00,VWS V14.00,2013-09-03 17:20:00,
2013-09-03 10:22:00,90.1,36.3,29.97,East,90,2.0,2.0,15,0.00,,SKC,0.00,VWS V14.00,2013-09-03 17:22:00,
2013-09-03 10:23:00,89.8,36.0,29.97,East,90,3.4,5.4,15,0.00,,SKC,0.00,VWS V14.00,2013-09-03 17:23:00,
2013-09-03 10:25:00,90.1,36.3,29.97,NE,45,0.0,5.4,15,0.00,,SKC,0.00,VWS V14.00,2013-09-03 17:25:00,
2013-09-03 10:27:00,90.7,36.7,29.97,East,90,1.6,4.0,15,0.00,,SKC,0.00,VWS V14.00,2013-09-03 17:27:00,
2013-09-03 10:28:00,90.7,36.7,29.97,NNW,338,1.1,6.3,15,0.00,,SKC,0.00,VWS V14.00,2013-09-03 17:28:00,
2013-09-03 10:30:00,90.7,36.7,29.97,North,0,4.0,6.3,15,0.00,,SKC,0.00,VWS V14.00,2013-09-03 17:30:00,
2013-09-03 10:32:00,91.2,37.2,29.97,NE,45,2.5,3.6,15,0.00,,SKC,0.00,VWS V14.00,2013-09-03 17:32:00,
2013-09-03 10:33:00,91.2,37.2,29.97,North,0,1.1,3.6,15,0.00,,SKC,0.00,VWS V14.00,2013-09-03 17:33:00,
2013-09-03 10:34:00,91.4,31.7,29.97,ENE,68,1.6,3.8,12,0.00,,SKC,0.00,VWS V14.00,2013-09-03 17:34:00,
2013-09-03 10:35:00,91.4,31.7,29.97,SE,135,2.2,3.8,12,0.00,,SKC,0.00,VWS V14.00,2013-09-03 17:35:00,
2013-09-03 10:36:00,91.4,31.7,29.97,SE,135,2.2,3.8,12,0.00,,SKC,0.00,VWS V14.00,2013-09-03 17:36:00,
2013-09-03 10:37:00,91.4,31.7,29.97,SE,135,0.0,3.8,12,0.00,,SKC,0.00,VWS V14.00,2013-09-03 17:37:00,
2013-09-03 10:38:00,92.1,32.3,29.97,SSW,202,2.2,3.8,12,0.00,,SKC,0.00,VWS V14.00,2013-09-03 17:38:00,
2013-09-03 10:39:00,92.1,32.3,29.97,SW,225,0.0,3.8,12,0.00,,SKC,0.00,VWS V14.00,2013-09-03 17:39:00,
2013-09-03 10:40:00,92.1,32.3,29.97,SW,225,0.0,3.8,12,0.00,,SKC,0.00,VWS V14.00,2013-09-03 17:40:00,
2013-09-03 10:41:00,92.3,32.4,29.97,NE,45,0.0,3.8,12,0.00,,SKC,0.00,VWS V14.00,2013-09-03 17:41:00,
2013-09-03 10:42:00,92.5,32.5,29.97,SSW,202,1.1,1.1,12,0.00,,SKC,0.00,VWS V14.00,2013-09-03 17:42:00,
2013-09-03 10:44:00,92.5,32.5,29.97,SE,135,0.0,1.1,12,0.00,,SKC,0.00,VWS V14.00,2013-09-03 17:44:00,
2013-09-03 10:45:00,92.5,32.5,29.97,SE,135,3.1,3.6,12,0.00,,SKC,0.00,VWS V14.00,2013-09-03 17:45:00,
2013-09-03 10:46:00,92.1,32.3,29.97,East,90,1.3,3.6,12,0.00,,SKC,0.00,VWS V14.00,2013-09-03 17:46:00,
2013-09-03 10:48:00,92.1,32.3,29.97,ESE,112,3.6,4.7,12,0.00,,SKC,0.00,VWS V14.00,2013-09-03 17:48:00,
2013-09-03 10:49:00,91.4,31.7,29.97,East,90,3.1,4.7,12,0.00,,SKC,0.00,VWS V14.00,2013-09-03 17:49:00,
2013-09-03 10:50:00,91.2,31.6,29.97,East,90,4.0,4.9,12,0.00,,SKC,0.00,VWS V14.00,2013-09-03 17:50:00,
2013-09-03 10:51:00,91.2,31.6,29.97,East,90,4.0,4.9,12,0.00,,SKC,0.00,VWS V14.00,2013-09-03 17:51:00,
2013-09-03 10:53:00,91.2,31.6,29.97,East,90,3.6,4.0,12,0.00,,SKC,0.00,VWS V14.00,2013-09-03 17:53:00,
2013-09-03 10:54:00,91.2,31.6,29.97,East,90,3.6,4.5,12,0.00,,SKC,0.00,VWS V14.00,2013-09-03 17:54:00,
2013-09-03 10:55:00,91.2,31.6,29.97,East,90,3.6,4.5,12,0.00,,SKC,0.00,VWS V14.00,2013-09-03 17:55:00,
2013-09-03 10:56:00,91.2,31.6,29.97,East,90,3.4,4.5,12,0.00,,SKC,0.00,VWS V14.00,2013-09-03 17:56:00,
2013-09-03 10:57:00,92.1,32.3,29.97,East,90,2.7,3.6,12,0.00,,SKC,0.00,VWS V14.00,2013-09-03 17:57:00,
2013-09-03 10:58:00,92.7,32.7,29.97,SW,225,0.9,3.6,12,0.00,,SKC,0.00,VWS V14.00,2013-09-03 17:58:00,
2013-09-03 11:00:00,93.6,31.2,29.97,SW,225,0.0,3.6,11,0.00,,SKC,0.00,VWS V14.00,2013-09-03 18:00:00,
2013-09-03 11:01:00,93.6,31.2,29.97,SW,225,0.0,3.6,11,0.00,,SKC,0.00,VWS V14.00,2013-09-03 18:01:00,
2013-09-03 11:02:00,93.6,31.2,29.97,SW,225,2.2,3.6,11,0.00,,SKC,0.00,VWS V14.00,2013-09-03 18:02:00,
2013-09-03 11:03:00,94.8,32.2,29.97,East,90,2.7,2.7,11,0.00,,SKC,0.00,VWS V14.00,2013-09-03 18:03:00,
2013-09-03 11:05:00,94.8,32.2,29.97,SE,135,5.4,5.4,11,0.00,,SKC,0.00,VWS V14.00,2013-09-03 18:05:00,
2013-09-03 11:06:00,93.0,33.0,29.97,NNE,22,0.0,3.6,12,0.00,,SKC,0.00,VWS V14.00,2013-09-03 18:06:00,
2013-09-03 11:07:00,93.6,31.2,29.97,SE,135,2.7,3.6,11,0.00,,SKC,0.00,VWS V14.00,2013-09-03 18:07:00,
2013-09-03 11:08:00,93.6,31.2,29.97,SE,135,2.7,3.6,11,0.00,,SKC,0.00,VWS V14.00,2013-09-03 18:08:00,
2013-09-03 11:10:00,92.8,32.8,29.97,SE,135,0.0,3.6,12,0.00,,SKC,0.00,VWS V14.00,2013-09-03 18:10:00,
2013-09-03 11:11:00,92.8,32.8,29.97,SE,135,0.0,3.6,12,0.00,,SKC,0.00,VWS V14.00,2013-09-03 18:11:00,
2013-09-03 11:12:00,92.8,32.8,29.97,SE,135,0.0,3.6,12,0.00,,SKC,0.00,VWS V14.00,2013-09-03 18:12:00,
2013-09-03 11:14:00,94.8,32.2,29.94,NNE,22,4.7,4.7,11,0.00,,SKC,0.00,VWS V14.00,2013-09-03 18:14:00,
2013-09-03 11:15:00,94.8,32.2,29.94,SE,135,1.1,4.7,11,0.00,,SKC,0.00,VWS V14.00,2013-09-03 18:15:00,
2013-09-03 11:16:00,94.8,32.2,29.94,SE,135,0.0,0.0,11,0.00,,SKC,0.00,VWS V14.00,2013-09-03 18:16:00,
2013-09-03 11:17:00,95.2,32.5,29.94,SE,135,0.0,0.0,11,0.00,,SKC,0.00,VWS V14.00,2013-09-03 18:17:00,
2013-09-03 11:18:00,95.2,32.5,29.94,ENE,68,2.5,2.5,11,0.00,,SKC,0.00,VWS V14.00,2013-09-03 18:18:00,
2013-09-03 11:19:00,95.4,32.6,29.94,NNE,22,3.6,3.6,11,0.00,,SKC,0.00,VWS V14.00,2013-09-03 18:19:00,
2013-09-03 11:20:00,95.4,32.6,29.94,NNE,22,3.6,3.6,11,0.00,,SKC,0.00,VWS V14.00,2013-09-03 18:20:00,
2013-09-03 11:21:00,95.4,32.6,29.94,NNE,22,3.6,3.6,11,0.00,,SKC,0.00,VWS V14.00,2013-09-03 18:21:00,
2013-09-03 11:22:00,95.7,32.9,29.94,NE,45,2.7,3.6,11,0.00,,SKC,0.00,VWS V14.00,2013-09-03 18:22:00,
2013-09-03 11:23:00,96.1,33.2,29.94,NE,45,0.0,3.6,11,0.00,,SKC,0.00,VWS V14.00,2013-09-03 18:23:00,
2013-09-03 11:25:00,96.1,33.2,29.94,SW,225,2.0,3.6,11,0.00,,SKC,0.00,VWS V14.00,2013-09-03 18:25:00,
2013-09-03 11:26:00,96.6,33.6,29.94,NW,315,0.0,3.6,11,0.00,,SKC,0.00,VWS V14.00,2013-09-03 18:26:00,
2013-09-03 11:27:00,97.0,33.8,29.94,NW,315,0.0,0.0,11,0.00,,SKC,0.00,VWS V14.00,2013-09-03 18:27:00,
2013-09-03 11:28:00,97.0,33.8,29.94,NW,315,0.0,0.0,11,0.00,,SKC,0.00,VWS V14.00,2013-09-03 18:28:00,
2013-09-03 11:30:00,97.0,33.8,29.94,SE,135,3.8,4.3,11,0.00,,SKC,0.00,VWS V14.00,2013-09-03 18:30:00,
2013-09-03 11:31:00,97.0,33.8,29.94,SE,135,3.8,4.3,11,0.00,,SKC,0.00,VWS V14.00,2013-09-03 18:31:00,
2013-09-03 11:32:00,96.4,33.4,29.94,ESE,112,2.9,4.3,11,0.00,,SKC,0.00,VWS V14.00,2013-09-03 18:32:00,
2013-09-03 11:33:00,96.4,33.4,29.94,SE,135,3.8,4.3,11,0.00,,SKC,0.00,VWS V14.00,2013-09-03 18:33:00,
2013-09-03 11:35:00,95.7,32.9,29.94,SE,135,6.5,6.5,11,0.00,,SKC,0.00,VWS V14.00,2013-09-03 18:35:00,
2013-09-03 11:36:00,95.7,32.9,29.94,East,90,2.7,6.5,11,0.00,,SKC,0.00,VWS V14.00,2013-09-03 18:36:00,
2013-09-03 11:37:00,95.0,32.3,29.94,NNE,22,3.4,6.5,11,0.00,,SKC,0.00,VWS V14.00,2013-09-03 18:37:00,
2013-09-03 11:38:00,95.4,32.6,29.94,NE,45,3.1,6.5,11,0.00,,SKC,0.00,VWS V14.00,2013-09-03 18:38:00,
2013-09-03 11:39:00,95.7,32.9,29.94,ENE,68,0.0,6.5,11,0.00,,SKC,0.00,VWS V14.00,2013-09-03 18:39:00,
2013-09-03 11:40:00,96.4,33.4,29.94,SW,225,0.0,6.5,11,0.00,,SKC,0.00,VWS V14.00,2013-09-03 18:40:00,
2013-09-03 11:41:00,96.6,33.6,29.94,WSW,248,1.6,6.5,11,0.00,,SKC,0.00,VWS V14.00,2013-09-03 18:41:00,
2013-09-03 11:43:00,96.6,33.6,29.94,SW,225,0.0,6.5,11,0.00,,SKC,0.00,VWS V14.00,2013-09-03 18:43:00,
2013-09-03 11:44:00,96.6,33.6,29.94,SW,225,0.0,6.5,11,0.00,,SKC,0.00,VWS V14.00,2013-09-03 18:44:00,
2013-09-03 11:45:00,96.6,33.6,29.94,SW,225,0.0,6.5,11,0.00,,SKC,0.00,VWS V14.00,2013-09-03 18:45:00,
2013-09-03 11:46:00,97.5,34.2,29.94,South,180,2.9,2.9,11,0.00,,SKC,0.00,VWS V14.00,2013-09-03 18:46:00,
2013-09-03 11:48:00,97.0,33.8,29.94,South,180,0.0,2.9,11,0.00,,SKC,0.00,VWS V14.00,2013-09-03 18:48:00,
2013-09-03 11:49:00,97.3,34.1,29.94,West,270,1.3,2.9,11,0.00,,SKC,0.00,VWS V14.00,2013-09-03 18:49:00,
2013-09-03 11:50:00,97.3,34.1,29.94,North,0,3.4,4.7,11,0.00,,SKC,0.00,VWS V14.00,2013-09-03 18:50:00,
2013-09-03 11:52:00,97.2,34.0,29.94,North,0,4.3,4.5,11,0.00,,SKC,0.00,VWS V14.00,2013-09-03 18:52:00,
2013-09-03 11:53:00,97.0,33.8,29.94,WNW,292,3.1,4.5,11,0.00,,SKC,0.00,VWS V14.00,2013-09-03 18:53:00,
2013-09-03 11:54:00,96.6,33.6,29.94,NW,315,5.8,5.8,11,0.00,,SKC,0.00,VWS V14.00,2013-09-03 18:54:00,
2013-09-03 11:55:00,96.6,33.6,29.94,WNW,292,4.3,5.8,11,0.00,,SKC,0.00,VWS V14.00,2013-09-03 18:55:00,
2013-09-03 11:57:00,95.9,33.0,29.94,North,0,3.1,4.9,11,0.00,,SKC,0.00,VWS V14.00,2013-09-03 18:57:00,
2013-09-03 11:58:00,97.0,33.8,29.94,NNE,22,0.0,4.9,11,0.00,,SKC,0.00,VWS V14.00,2013-09-03 18:58:00,
2013-09-03 12:00:00,97.9,34.5,29.94,North,0,1.1,4.9,11,0.00,,SKC,0.00,VWS V14.00,2013-09-03 19:00:00,
2013-09-03 12:01:00,98.4,34.9,29.94,NW,315,5.8,5.8,11,0.00,,SKC,0.00,VWS V14.00,2013-09-03 19:01:00,
2013-09-03 12:02:00,96.1,33.2,29.94,NNW,338,4.3,6.0,11,0.00,,SKC,0.00,VWS V14.00,2013-09-03 19:02:00,
2013-09-03 12:03:00,96.1,33.2,29.94,NNE,22,5.4,6.0,11,0.00,,SKC,0.00,VWS V14.00,2013-09-03 19:03:00,
2013-09-03 12:05:00,96.3,33.3,29.94,NW,315,2.9,6.0,11,0.00,,SKC,0.00,VWS V14.00,2013-09-03 19:05:00,
2013-09-03 12:06:00,96.4,33.4,29.94,NW,315,3.4,3.4,11,0.00,,SKC,0.00,VWS V14.00,2013-09-03 19:06:00,
2013-09-03 12:07:00,97.5,34.2,29.94,North,0,3.4,4.0,11,0.00,,SKC,0.00,VWS V14.00,2013-09-03 19:07:00,
2013-09-03 12:08:00,97.7,34.4,29.94,North,0,0.0,4.0,11,0.00,,SKC,0.00,VWS V14.00,2013-09-03 19:08:00,
2013-09-03 12:10:00,98.2,34.8,29.94,West,270,3.6,4.0,11,0.00,,SKC,0.00,VWS V14.00,2013-09-03 19:10:00,
2013-09-03 12:11:00,99.7,33.5,29.94,WNW,292,0.0,1.6,10,0.00,,SKC,0.00,VWS V14.00,2013-09-03 19:11:00,
2013-09-03 12:12:00,99.7,33.5,29.94,ENE,68,0.0,1.6,10,0.00,,SKC,0.00,VWS V14.00,2013-09-03 19:12:00,
2013-09-03 12:13:00,99.1,33.1,29.94,East,90,2.9,3.4,10,0.00,,SKC,0.00,VWS V14.00,2013-09-03 19:13:00,
2013-09-03 12:14:00,99.3,33.2,29.94,SE,135,0.0,3.4,10,0.00,,SKC,0.00,VWS V14.00,2013-09-03 19:14:00,
2013-09-03 12:15:00,99.3,33.2,29.94,SE,135,0.0,3.4,10,0.00,,SKC,0.00,VWS V14.00,2013-09-03 19:15:00,
2013-09-03 12:16:00,99.3,33.2,29.94,SE,135,6.0,6.0,10,0.00,,SKC,0.00,VWS V14.00,2013-09-03 19:16:00,
2013-09-03 12:17:00,97.9,34.5,29.94,SW,225,0.0,6.0,11,0.00,,SKC,0.00,VWS V14.00,2013-09-03 19:17:00,
2013-09-03 12:18:00,97.9,34.5,29.94,SE,135,3.6,6.0,11,0.00,,SKC,0.00,VWS V14.00,2013-09-03 19:18:00,
2013-09-03 12:19:00,97.3,34.1,29.94,South,180,3.4,6.0,11,0.00,,SKC,0.00,VWS V14.00,2013-09-03 19:19:00,
2013-09-03 12:20:00,97.0,33.8,29.94,ESE,112,4.0,6.0,11,0.00,,SKC,0.00,VWS V14.00,2013-09-03 19:20:00,
2013-09-03 12:21:00,97.0,33.8,29.94,ESE,112,4.0,6.0,11,0.00,,SKC,0.00,VWS V14.00,2013-09-03 19:21:00,
2013-09-03 12:22:00,96.6,33.6,29.94,East,90,3.8,4.5,11,0.00,,SKC,0.00,VWS V14.00,2013-09-03 19:22:00,
2013-09-03 12:23:00,96.4,33.4,29.94,SE,135,5.4,5.4,11,0.00,,SKC,0.00,VWS V14.00,2013-09-03 19:23:00,
2013-09-03 12:24:00,95.9,33.0,29.94,South,180,4.9,7.4,11,0.00,,SKC,0.00,VWS V14.00,2013-09-03 19:24:00,
2013-09-03 12:25:00,95.5,32.7,29.94,SE,135,4.7,8.5,11,0.00,,SKC,0.00,VWS V14.00,2013-09-03 19:25:00,
2013-09-03 12:26:00,95.5,32.7,29.94,SE,135,4.7,8.5,11,0.00,,SKC,0.00,VWS V14.00,2013-09-03 19:26:00,
2013-09-03 12:27:00,95.5,32.7,29.94,SE,135,2.7,4.7,11,0.00,,SKC,0.00,VWS V14.00,2013-09-03 19:27:00,
2013-09-03 12:28:00,95.5,32.7,29.94,SE,135,5.4,6.3,11,0.00,,SKC,0.00,VWS V14.00,2013-09-03 19:28:00,
2013-09-03 12:29:00,95.5,32.7,29.94,SE,135,4.3,7.4,11,0.00,,SKC,0.00,VWS V14.00,2013-09-03 19:29:00,
2013-09-03 12:30:00,96.3,33.3,29.91,NE,45,3.4,7.4,11,0.00,,SKC,0.00,VWS V14.00,2013-09-03 19:30:00,
2013-09-03 12:31:00,96.3,33.3,29.91,NE,45,3.4,7.4,11,0.00,,SKC,0.00,VWS V14.00,2013-09-03 19:31:00,
2013-09-03 12:32:00,97.3,34.1,29.91,SE,135,1.6,5.8,11,0.00,,SKC,0.00,VWS V14.00,2013-09-03 19:32:00,
2013-09-03 12:33:00,97.3,34.1,29.91,SE,135,2.7,5.8,11,0.00,,SKC,0.00,VWS V14.00,2013-09-03 19:33:00,
2013-09-03 12:34:00,97.3,34.1,29.91,East,90,4.3,5.8,11,0.00,,SKC,0.00,VWS V14.00,2013-09-03 19:34:00,
2013-09-03 12:35:00,97.5,34.2,29.91,ESE,112,3.4,5.8,11,0.00,,SKC,0.00,VWS V14.00,2013-09-03 19:35:00,
2013-09-03 12:36:00,97.5,34.2,29.91,East,90,2.2,3.4,11,0.00,,SKC,0.00,VWS V14.00,2013-09-03 19:36:00,
2013-09-03 12:38:00,97.7,34.4,29.91,East,90,2.7,6.0,11,0.00,,SKC,0.00,VWS V14.00,2013-09-03 19:38:00,
2013-09-03 12:39:00,98.2,34.8,29.91,East,90,2.5,6.0,11,0.00,,SKC,0.00,VWS V14.00,2013-09-03 19:39:00,
2013-09-03 12:40:00,98.4,34.9,29.91,NE,45,3.8,6.0,11,0.00,,SKC,0.00,VWS V14.00,2013-09-03 19:40:00,
2013-09-03 12:41:00,98.4,34.9,29.91,NE,45,3.6,3.8,11,0.00,,SKC,0.00,VWS V14.00,2013-09-03 19:41:00,
2013-09-03 12:43:00,99.3,33.2,29.91,North,0,0.9,5.6,10,0.00,,SKC,0.00,VWS V14.00,2013-09-03 19:43:00,
2013-09-03 12:44:00,99.3,33.2,29.94,NE,45,4.0,5.6,10,0.00,,SKC,0.00,VWS V14.00,2013-09-03 19:44:00,
2013-09-03 12:45:00,99.3,33.2,29.94,East,90,5.6,5.8,10,0.00,,SKC,0.00,VWS V14.00,2013-09-03 19:45:00,
2013-09-03 12:46:00,99.3,33.2,29.94,East,90,5.6,5.8,10,0.00,,SKC,0.00,VWS V14.00,2013-09-03 19:46:00,
2013-09-03 12:48:00,97.5,34.2,29.94,NNE,22,3.6,7.2,11,0.00,,SKC,0.00,VWS V14.00,2013-09-03 19:48:00,
2013-09-03 12:49:00,98.2,34.8,29.94,ENE,68,3.8,7.2,11,0.00,,SKC,0.00,VWS V14.00,2013-09-03 19:49:00,
2013-09-03 12:50:00,98.2,34.8,29.94,SE,135,3.1,7.2,11,0.00,,SKC,0.00,VWS V14.00,2013-09-03 19:50:00,
2013-09-03 12:51:00,99.0,33.0,29.94,NNW,338,1.6,2.9,10,0.00,,SKC,0.00,VWS V14.00,2013-09-03 19:51:00,
2013-09-03 12:53:00,98.1,34.7,29.94,NNW,338,2.9,2.9,11,0.00,,SKC,0.00,VWS V14.00,2013-09-03 19:53:00,
2013-09-03 12:54:00,98.1,34.7,29.94,West,270,2.7,2.9,11,0.00,,SKC,0.00,VWS V14.00,2013-09-03 19:54:00,
2013-09-03 12:55:00,98.1,34.7,29.94,West,270,2.7,2.9,11,0.00,,SKC,0.00,VWS V14.00,2013-09-03 19:55:00,
2013-09-03 12:56:00,95.4,32.6,29.94,NNW,338,3.8,5.6,11,0.00,,SKC,0.00,VWS V14.00,2013-09-03 19:56:00,
2013-09-03 12:58:00,95.4,32.6,29.94,NNE,22,4.0,5.6,11,0.00,,SKC,0.00,VWS V14.00,2013-09-03 19:58:00,
2013-09-03 12:59:00,95.0,32.3,29.94,NNE,22,3.6,7.4,11,0.00,,SKC,0.00,VWS V14.00,2013-09-03 19:59:00,
2013-09-03 13:00:00,95.0,32.3,29.94,NNE,22,3.8,7.4,11,0.00,,SKC,0.00,VWS V14.00,2013-09-03 20:00:00,
2013-09-03 13:01:00,95.9,33.0,29.94,NW,315,2.5,4.3,11,0.00,,SKC,0.00,VWS V14.00,2013-09-03 20:01:00,
2013-09-03 13:03:00,93.9,31.5,29.94,NW,315,8.7,10.3,11,0.00,,SKC,0.00,VWS V14.00,2013-09-03 20:03:00,
2013-09-03 13:04:00,93.2,31.0,29.94,NW,315,7.8,10.3,11,0.00,,SKC,0.00,VWS V14.00,2013-09-03 20:04:00,
2013-09-03 13:05:00,93.2,31.0,29.94,NW,315,7.8,10.3,11,0.00,,SKC,0.00,VWS V14.00,2013-09-03 20:05:00,
2013-09-03 13:06:00,91.2,31.6,29.94,North,0,8.1,8.5,12,0.00,,SKC,0.00,VWS V14.00,2013-09-03 20:06:00,
2013-09-03 13:08:00,90.7,31.2,29.94,WNW,292,2.9,8.5,12,0.00,,SKC,0.00,VWS V14.00,2013-09-03 20:08:00,
2013-09-03 13:09:00,91.2,31.6,29.94,NNW,338,5.6,8.5,12,0.00,,SKC,0.00,VWS V14.00,2013-09-03 20:09:00,
2013-09-03 13:10:00,91.2,31.6,29.94,NNE,22,3.8,8.5,12,0.00,,SKC,0.00,VWS V14.00,2013-09-03 20:10:00,
2013-09-03 13:12:00,91.2,31.6,29.94,NNE,22,2.7,2.9,12,0.00,,SKC,0.00,VWS V14.00,2013-09-03 20:12:00,
2013-09-03 13:13:00,90.9,31.3,29.94,NNE,22,2.7,4.9,12,0.00,,SKC,0.00,VWS V14.00,2013-09-03 20:13:00,
2013-09-03 13:15:00,91.0,31.4,29.94,NNW,338,2.7,4.9,12,0.00,,SKC,0.00,VWS V14.00,2013-09-03 20:15:00,
2013-09-03 13:16:00,90.7,31.2,29.94,NW,315,3.6,6.0,12,0.00,,SKC,0.00,VWS V14.00,2013-09-03 20:16:00,
2013-09-03 13:17:00,90.9,31.3,29.94,NW,315,4.3,4.3,12,0.00,,SKC,0.00,VWS V14.00,2013-09-03 20:17:00,
2013-09-03 13:18:00,90.0,30.6,29.94,WNW,292,5.8,5.8,12,0.00,,SKC,0.00,VWS V14.00,2013-09-03 20:18:00,
2013-09-03 13:20:00,89.1,31.9,29.94,NW,315,5.4,8.7,13,0.00,,SKC,0.00,VWS V14.00,2013-09-03 20:20:00,
2013-09-03 13:21:00,89.1,31.9,29.94,WNW,292,6.3,8.7,13,0.00,,SKC,0.00,VWS V14.00,2013-09-03 20:21:00,
2013-09-03 13:22:00,89.4,32.2,29.94,NNE,22,5.6,6.3,13,0.00,,SKC,0.00,VWS V14.00,2013-09-03 20:22:00,
2013-09-03 13:23:00,89.4,32.2,29.94,NNE,22,5.6,6.3,13,0.00,,SKC,0.00,VWS V14.00,2013-09-03 20:23:00,
2013-09-03 13:25:00,89.8,30.5,29.94,NE,45,4.7,7.6,12,0.00,,SKC,0.00,VWS V14.00,2013-09-03 20:25:00,
2013-09-03 13:26:00,89.8,30.5,29.94,NE,45,4.7,7.6,12,0.00,,SKC,0.00,VWS V14.00,2013-09-03 20:26:00,
2013-09-03 13:28:00,90.3,30.9,29.94,NNE,22,3.1,6.0,12,0.00,,SKC,0.00,VWS V14.00,2013-09-03 20:28:00,
2013-09-03 13:30:00,90.3,30.9,29.94,ESE,112,1.6,6.0,12,0.00,,SKC,0.00,VWS V14.00,2013-09-03 20:30:00,
2013-09-03 13:31:00,90.3,30.9,29.94,ESE,112,1.6,6.0,12,0.00,,SKC,0.00,VWS V14.00,2013-09-03 20:31:00,
2013-09-03 13:33:00,90.9,31.3,29.94,ENE,68,2.5,3.8,12,0.00,,SKC,0.00,VWS V14.00,2013-09-03 20:33:00,
2013-09-03 13:35:00,91.2,31.6,29.94,NE,45,2.0,3.8,12,0.00,,SKC,0.00,VWS V14.00,2013-09-03 20:35:00,
2013-09-03 13:36:00,91.2,31.6,29.94,NE,45,2.0,3.8,12,0.00,,SKC,0.00,VWS V14.00,2013-09-03 20:36:00,
2013-09-03 13:37:00,91.4,31.7,29.94,East,90,0.0,2.0,12,0.00,,SKC,0.00,VWS V14.00,2013-09-03 20:37:00,
2013-09-03 13:38:00,91.8,32.0,29.94,East,90,0.0,2.0,12,0.00,,SKC,0.00,VWS V14.00,2013-09-03 20:38:00,
2013-09-03 13:40:00,91.2,31.6,29.94,SW,225,0.0,2.7,12,0.00,,SKC,0.00,VWS V14.00,2013-09-03 20:40:00,
2013-09-03 13:41:00,91.2,31.6,29.94,SW,225,0.0,2.7,12,0.00,,SKC,0.00,VWS V14.00,2013-09-03 20:41:00,
2013-09-03 13:42:00,91.8,32.0,29.94,SW,225,0.0,0.9,12,0.00,,SKC,0.00,VWS V14.00,2013-09-03 20:42:00,
2013-09-03 13:43:00,91.9,32.1,29.94,SW,225,0.0,0.9,12,0.00,,SKC,0.00,VWS V14.00,2013-09-03 20:43:00,
2013-09-03 13:44:00,92.3,32.4,29.91,SW,225,0.0,0.9,12,0.00,,SKC,0.00,VWS V14.00,2013-09-03 20:44:00,
2013-09-03 13:45:00,92.8,32.8,29.91,East,90,0.0,0.9,12,0.00,,SKC,0.00,VWS V14.00,2013-09-03 20:45:00,
2013-09-03 13:46:00,92.8,32.8,29.91,East,90,0.0,0.9,12,0.00,,SKC,0.00,VWS V14.00,2013-09-03 20:46:00,
2013-09-03 13:47:00,93.0,33.0,29.91,NE,45,0.0,0.0,12,0.00,,SKC,0.00,VWS V14.00,2013-09-03 20:47:00,
2013-09-03 13:48:00,93.4,31.1,29.91,North,0,0.0,0.0,11,0.00,,SKC,0.00,VWS V14.00,2013-09-03 20:48:00,
2013-09-03 13:49:00,93.2,31.0,29.91,East,90,0.9,0.9,11,0.00,,SKC,0.00,VWS V14.00,2013-09-03 20:49:00,
2013-09-03 13:50:00,93.0,33.0,29.91,NE,45,2.7,3.8,12,0.00,,SKC,0.00,VWS V14.00,2013-09-03 20:50:00,
2013-09-03 13:51:00,93.0,33.0,29.91,NE,45,3.1,3.1,12,0.00,,SKC,0.00,VWS V14.00,2013-09-03 20:51:00,
2013-09-03 13:53:00,92.8,32.8,29.91,NE,45,2.2,3.6,12,0.00,,SKC,0.00,VWS V14.00,2013-09-03 20:53:00,
2013-09-03 13:54:00,93.2,31.0,29.91,SE,135,1.1,3.6,11,0.00,,SKC,0.00,VWS V14.00,2013-09-03 20:54:00,
2013-09-03 13:55:00,95.4,32.6,29.91,ESE,112,3.1,3.8,11,0.00,,SKC,0.00,VWS V14.00,2013-09-03 20:55:00,
2013-09-03 13:56:00,95.4,32.6,29.91,SE,135,2.7,3.1,11,0.00,,SKC,0.00,VWS V14.00,2013-09-03 20:56:00,
2013-09-03 13:58:00,96.8,33.7,29.91,North,0,1.1,3.6,11,0.00,,SKC,0.00,VWS V14.00,2013-09-03 20:58:00,
2013-09-03 13:59:00,97.2,34.0,29.91,NW,315,4.9,4.9,11,0.00,,SKC,0.00,VWS V14.00,2013-09-03 20:59:00,
2013-09-03 14:00:00,97.2,34.0,29.91,NW,315,5.4,5.4,11,0.00,,SKC,0.00,VWS V14.00,2013-09-03 21:00:00,
2013-09-03 14:01:00,97.2,34.0,29.91,NW,315,5.4,5.4,11,0.00,,SKC,0.00,VWS V14.00,2013-09-03 21:01:00,
2013-09-03 14:03:00,97.9,34.5,29.91,WNW,292,2.5,5.4,11,0.00,,SKC,0.00,VWS V14.00,2013-09-03 21:03:00,
2013-09-03 14:04:00,97.5,34.2,29.91,West,270,2.7,5.4,11,0.00,,SKC,0.00,VWS V14.00,2013-09-03 21:04:00,
2013-09-03 14:05:00,99.1,33.1,29.91,SE,135,3.4,5.4,10,0.00,,SKC,0.00,VWS V14.00,2013-09-03 21:05:00,
2013-09-03 14:06:00,98.4,34.9,29.91,SE,135,4.3,4.3,11,0.00,,SKC,0.00,VWS V14.00,2013-09-03 21:06:00,
2013-09-03 14:08:00,96.8,33.7,29.91,SW,225,1.6,4.3,11,0.00,,SKC,0.00,VWS V14.00,2013-09-03 21:08:00,
2013-09-03 14:09:00,96.8,33.7,29.91,SW,225,2.9,4.3,11,0.00,,SKC,0.00,VWS V14.00,2013-09-03 21:09:00,
2013-09-03 14:10:00,96.4,33.4,29.91,SE,135,2.9,4.3,11,0.00,,SKC,0.00,VWS V14.00,2013-09-03 21:10:00,
2013-09-03 14:11:00,96.4,33.4,29.91,SW,225,2.5,3.4,11,0.00,,SKC,0.00,VWS V14.00,2013-09-03 21:11:00,
2013-09-03 14:14:00,96.3,33.3,29.91,South,180,1.6,5.4,11,0.00,,SKC,0.00,VWS V14.00,2013-09-03 21:14:00,
2013-09-03 14:15:00,96.8,33.7,29.91,South,180,4.7,5.4,11,0.00,,SKC,0.00,VWS V14.00,2013-09-03 21:15:00,
2013-09-03 14:16:00,97.0,33.8,29.91,SW,225,2.9,3.6,11,0.00,,SKC,0.00,VWS V14.00,2013-09-03 21:16:00,
2013-09-03 14:19:00,99.3,33.2,29.91,WNW,292,0.0,3.6,10,0.00,,SKC,0.00,VWS V14.00,2013-09-03 21:19:00,
2013-09-03 14:20:00,100.0,33.8,29.91,South,180,2.7,3.6,10,0.00,,SKC,0.00,VWS V14.00,2013-09-03 21:20:00,
2013-09-03 14:22:00,99.0,33.0,29.91,SE,135,3.4,4.7,10,0.00,,SKC,0.00,VWS V14.00,2013-09-03 21:22:00,
2013-09-03 14:24:00,98.1,34.7,29.91,SSW,202,0.9,4.7,11,0.00,,SKC,0.00,VWS V14.00,2013-09-03 21:24:00,
2013-09-03 14:25:00,98.1,34.7,29.91,SSW,202,0.9,4.7,11,0.00,,SKC,0.00,VWS V14.00,2013-09-03 21:25:00,
2013-09-03 14:26:00,98.1,34.7,29.91,NE,45,2.2,4.7,11,0.00,,SKC,0.00,VWS V14.00,2013-09-03 21:26:00,
2013-09-03 14:27:00,99.9,33.6,29.91,NE,45,0.0,2.9,10,0.00,,SKC,0.00,VWS V14.00,2013-09-03 21:27:00,
2013-09-03 14:29:00,100.2,33.9,29.91,SE,135,3.8,4.5,10,0.00,,SKC,0.00,VWS V14.00,2013-09-03 21:29:00,
2013-09-03 14:30:00,100.2,33.9,29.91,SE,135,6.5,6.7,10,0.00,,SKC,0.00,VWS V14.00,2013-09-03 21:30:00,
2013-09-03 14:32:00,98.8,32.8,29.91,South,180,2.0,2.9,10,0.00,,SKC,0.00,VWS V14.00,2013-09-03 21:32:00,
2013-09-03 14:35:00,96.8,33.7,29.91,East,90,3.6,4.5,11,0.00,,SKC,0.00,VWS V14.00,2013-09-03 21:35:00,
2013-09-03 14:36:00,96.4,33.4,29.91,South,180,4.3,5.4,11,0.00,,SKC,0.00,VWS V14.00,2013-09-03 21:36:00,
2013-09-03 14:37:00,95.9,33.0,29.91,SE,135,1.6,5.4,11,0.00,,SKC,0.00,VWS V14.00,2013-09-03 21:37:00,
2013-09-03 14:38:00,95.4,32.6,29.91,SE,135,3.8,5.4,11,0.00,,SKC,0.00,VWS V14.00,2013-09-03 21:38:00,
2013-09-03 14:40:00,94.6,32.0,29.91,SE,135,5.6,5.6,11,0.00,,SKC,0.00,VWS V14.00,2013-09-03 21:40:00,
2013-09-03 14:41:00,94.6,32.0,29.91,South,180,5.8,7.4,11,0.00,,SKC,0.00,VWS V14.00,2013-09-03 21:41:00,
2013-09-03 14:42:00,94.6,32.0,29.91,South,180,5.4,5.8,11,0.00,,SKC,0.00,VWS V14.00,2013-09-03 21:42:00,
2013-09-03 14:43:00,94.6,32.0,29.91,SW,225,5.6,5.8,11,0.00,,SKC,0.00,VWS V14.00,2013-09-03 21:43:00,
2013-09-03 14:45:00,95.5,32.7,29.91,SSW,202,5.6,5.8,11,0.00,,SKC,0.00,VWS V14.00,2013-09-03 21:45:00,
2013-09-03 14:46:00,95.9,33.0,29.91,WSW,248,2.7,2.9,11,0.00,,SKC,0.00,VWS V14.00,2013-09-03 21:46:00,
2013-09-03 14:47:00,96.3,33.3,29.91,West,270,1.3,2.9,11,0.00,,SKC,0.00,VWS V14.00,2013-09-03 21:47:00,
2013-09-03 14:49:00,97.9,34.5,29.91,SE,135,0.0,4.9,11,0.00,,SKC,0.00,VWS V14.00,2013-09-03 21:49:00,
2013-09-03 14:50:00,97.9,34.5,29.91,SE,135,0.0,4.9,11,0.00,,SKC,0.00,VWS V14.00,2013-09-03 21:50:00,
2013-09-03 14:51:00,97.9,34.5,29.91,West,270,3.4,3.4,11,0.00,,SKC,0.00,VWS V14.00,2013-09-03 21:51:00,
2013-09-03 14:52:00,97.9,34.5,29.91,West,270,3.4,3.4,11,0.00,,SKC,0.00,VWS V14.00,2013-09-03 21:52:00,
2013-09-03 14:54:00,99.1,33.1,29.91,SW,225,0.0,3.8,10,0.00,,SKC,0.00,VWS V14.00,2013-09-03 21:54:00,
2013-09-03 14:55:00,98.8,32.8,29.91,South,180,1.6,3.8,10,0.00,,SKC,0.00,VWS V14.00,2013-09-03 21:55:00,
2013-09-03 14:56:00,98.6,32.7,29.91,South,180,0.0,0.0,10,0.00,,SKC,0.00,VWS V14.00,2013-09-03 21:56:00,
2013-09-03 14:57:00,98.2,34.8,29.91,SE,135,1.3,2.2,11,0.00,,SKC,0.00,VWS V14.00,2013-09-03 21:57:00,
2013-09-03 15:00:00,96.4,33.4,29.88,East,90,3.6,6.0,11,0.00,,SKC,0.00,VWS V14.00,2013-09-03 22:00:00,
2013-09-03 15:01:00,97.5,34.2,29.88,SSW,202,0.0,2.0,11,0.00,,SKC,0.00,VWS V14.00,2013-09-03 22:01:00,
2013-09-03 15:03:00,97.5,34.2,29.88,WSW,248,0.0,2.0,11,0.00,,SKC,0.00,VWS V14.00,2013-09-03 22:03:00,
2013-09-03 15:04:00,98.2,34.8,29.88,WSW,248,3.4,3.4,11,0.00,,SKC,0.00,VWS V14.00,2013-09-03 22:04:00,
2013-09-03 15:05:00,98.2,34.8,29.88,WSW,248,2.9,4.0,11,0.00,,SKC,0.00,VWS V14.00,2013-09-03 22:05:00,
2013-09-03 15:06:00,97.7,34.4,29.88,SW,225,2.5,2.7,11,0.00,,SKC,0.00,VWS V14.00,2013-09-03 22:06:00,
2013-09-03 15:08:00,98.8,32.8,29.88,WSW,248,0.0,3.1,10,0.00,,SKC,0.00,VWS V14.00,2013-09-03 22:08:00,
2013-09-03 15:09:00,97.9,34.5,29.88,SW,225,7.8,7.8,11,0.00,,SKC,0.00,VWS V14.00,2013-09-03 22:09:00,
2013-09-03 15:10:00,96.8,33.7,29.88,SW,225,6.0,7.8,11,0.00,,SKC,0.00,VWS V14.00,2013-09-03 22:10:00,
2013-09-03 15:11:00,96.4,33.4,29.88,SSW,202,5.4,5.4,11,0.00,,SKC,0.00,VWS V14.00,2013-09-03 22:11:00,
2013-09-03 15:13:00,96.4,33.4,29.88,West,270,5.4,5.8,11,0.00,,SKC,0.00,VWS V14.00,2013-09-03 22:13:00,
2013-09-03 15:15:00,96.3,33.3,29.88,SSW,202,0.0,5.8,11,0.00,,SKC,0.00,VWS V14.00,2013-09-03 22:15:00,
2013-09-03 15:16:00,96.8,33.7,29.88,SE,135,0.0,0.0,11,0.00,,SKC,0.00,VWS V14.00,2013-09-03 22:16:00,
2013-09-03 15:18:00,96.8,33.7,29.88,SSW,202,1.1,1.1,11,0.00,,SKC,0.00,VWS V14.00,2013-09-03 22:18:00,
2013-09-03 15:20:00,97.9,34.5,29.88,South,180,1.3,2.0,11,0.00,,SKC,0.00,VWS V14.00,2013-09-03 22:20:00,
2013-09-03 15:21:00,97.9,34.5,29.88,SW,225,1.3,2.9,11,0.00,,SKC,0.00,VWS V14.00,2013-09-03 22:21:00,
2013-09-03 15:22:00,97.9,34.5,29.88,SW,225,1.3,2.9,11,0.00,,SKC,0.00,VWS V14.00,2013-09-03 22:22:00,
2013-09-03 15:23:00,96.8,33.7,29.88,WSW,248,4.9,7.2,11,0.00,,SKC,0.00,VWS V14.00,2013-09-03 22:23:00,
2013-09-03 15:25:00,96.1,33.2,29.88,WNW,292,10.7,12.1,11,0.00,,SKC,0.00,VWS V14.00,2013-09-03 22:25:00,
2013-09-03 15:27:00,94.1,31.6,29.88,SSW,202,3.4,9.8,11,0.00,,SKC,0.00,VWS V14.00,2013-09-03 22:27:00,
2013-09-03 15:29:00,94.3,31.8,29.88,West,270,1.3,9.8,11,0.00,,SKC,0.00,VWS V14.00,2013-09-03 22:29:00,
2013-09-03 15:30:00,93.9,31.5,29.88,South,180,3.8,9.8,11,0.00,,SKC,0.00,VWS V14.00,2013-09-03 22:30:00,
2013-09-03 15:31:00,93.9,31.5,29.88,South,180,7.4,9.8,11,0.00,,SKC,0.00,VWS V14.00,2013-09-03 22:31:00,
2013-09-03 15:32:00,92.8,32.8,29.88,SSW,202,4.0,7.4,12,0.00,,SKC,0.00,VWS V14.00,2013-09-03 22:32:00,
2013-09-03 15:34:00,92.5,32.5,29.88,WSW,248,4.3,7.4,12,0.00,,SKC,0.00,VWS V14.00,2013-09-03 22:34:00,
2013-09-03 15:35:00,92.5,32.5,29.88,SW,225,4.3,7.4,12,0.00,,SKC,0.00,VWS V14.00,2013-09-03 22:35:00,
2013-09-03 15:36:00,92.5,32.5,29.88,WSW,248,4.3,7.4,12,0.00,,SKC,0.00,VWS V14.00,2013-09-03 22:36:00,
2013-09-03 15:37:00,92.5,32.5,29.88,SW,225,4.3,7.4,12,0.00,,SKC,0.00,VWS V14.00,2013-09-03 22:37:00,
2013-09-03 15:39:00,92.1,32.3,29.88,WNW,292,2.0,4.3,12,0.00,,SKC,0.00,VWS V14.00,2013-09-03 22:39:00,
2013-09-03 15:40:00,92.3,32.4,29.88,SW,225,2.5,4.3,12,0.00,,SKC,0.00,VWS V14.00,2013-09-03 22:40:00,
2013-09-03 15:41:00,92.3,32.4,29.88,SW,225,2.7,2.7,12,0.00,,SKC,0.00,VWS V14.00,2013-09-03 22:41:00,
2013-09-03 15:42:00,92.3,32.4,29.88,South,180,0.0,2.7,12,0.00,,SKC,0.00,VWS V14.00,2013-09-03 22:42:00,
2013-09-03 15:44:00,91.9,32.1,29.88,SSW,202,2.7,3.1,12,0.00,,SKC,0.00,VWS V14.00,2013-09-03 22:44:00,
2013-09-03 15:45:00,91.9,32.1,29.88,SE,135,0.0,3.1,12,0.00,,SKC,0.00,VWS V14.00,2013-09-03 22:45:00,
2013-09-03 15:46:00,91.9,32.1,29.88,SE,135,0.0,3.1,12,0.00,,SKC,0.00,VWS V14.00,2013-09-03 22:46:00,
2013-09-03 15:47:00,91.9,32.1,29.88,SE,135,0.0,3.1,12,0.00,,SKC,0.00,VWS V14.00,2013-09-03 22:47:00,
2013-09-03 15:49:00,91.4,31.7,29.88,SW,225,2.0,4.0,12,0.00,,SKC,0.00,VWS V14.00,2013-09-03 22:49:00,
2013-09-03 15:50:00,91.4,31.7,29.88,South,180,0.0,4.0,12,0.00,,SKC,0.00,VWS V14.00,2013-09-03 22:50:00,
2013-09-03 15:51:00,91.4,31.7,29.88,South,180,0.0,0.0,12,0.00,,SKC,0.00,VWS V14.00,2013-09-03 22:51:00,
2013-09-03 15:52:00,91.2,31.6,29.88,SSW,202,0.0,3.4,12,0.00,,SKC,0.00,VWS V14.00,2013-09-03 22:52:00,
2013-09-03 15:54:00,91.4,31.7,29.88,SE,135,0.9,3.4,12,0.00,,SKC,0.00,VWS V14.00,2013-09-03 22:54:00,
2013-09-03 15:55:00,91.4,31.7,29.88,South,180,1.3,3.4,12,0.00,,SKC,0.00,VWS V14.00,2013-09-03 22:55:00,
2013-09-03 15:56:00,91.4,31.7,29.88,South,180,1.3,3.4,12,0.00,,SKC,0.00,VWS V14.00,2013-09-03 22:56:00,
2013-09-03 15:58:00,91.8,32.0,29.88,West,270,0.0,1.3,12,0.00,,SKC,0.00,VWS V14.00,2013-09-03 22:58:00,
2013-09-03 16:00:00,91.4,31.7,29.88,West,270,3.6,4.0,12,0.00,,SKC,0.00,VWS V14.00,2013-09-03 23:00:00,
2013-09-03 16:01:00,91.8,32.0,29.88,West,270,0.0,4.0,12,0.00,,SKC,0.00,VWS V14.00,2013-09-03 23:01:00,
2013-09-03 16:02:00,91.8,32.0,29.88,West,270,0.0,4.0,12,0.00,,SKC,0.00,VWS V14.00,2013-09-03 23:02:00,
2013-09-03 16:03:00,91.8,32.0,29.88,WSW,248,3.8,3.8,12,0.00,,SKC,0.00,VWS V14.00,2013-09-03 23:03:00,
2013-09-03 16:05:00,91.6,31.9,29.88,West,270,0.0,4.0,12,0.00,,SKC,0.00,VWS V14.00,2013-09-03 23:05:00,
2013-09-03 16:07:00,91.6,31.9,29.88,West,270,2.9,2.9,12,0.00,,SKC,0.00,VWS V14.00,2013-09-03 23:07:00,
2013-09-03 16:08:00,91.8,32.0,29.88,SW,225,0.0,2.9,12,0.00,,SKC,0.00,VWS V14.00,2013-09-03 23:08:00,
2013-09-03 16:10:00,91.2,31.6,29.88,WSW,248,3.4,3.8,12,0.00,,SKC,0.00,VWS V14.00,2013-09-03 23:10:00,
2013-09-03 16:12:00,91.2,31.6,29.88,WNW,292,4.3,4.3,12,0.00,,SKC,0.00,VWS V14.00,2013-09-03 23:12:00,
2013-09-03 16:13:00,91.2,31.6,29.88,SW,225,4.0,5.6,12,0.00,,SKC,0.00,VWS V14.00,2013-09-03 23:13:00,
2013-09-03 16:15:00,90.1,26.3,29.88,West,270,3.8,6.3,10,0.00,,SKC,0.00,VWS V14.00,2013-09-03 23:15:00,
2013-09-03 16:17:00,90.3,30.9,29.88,WSW,248,1.3,3.8,12,0.00,,SKC,0.00,VWS V14.00,2013-09-03 23:17:00,
2013-09-03 16:18:00,90.3,30.9,29.88,West,270,5.8,5.8,12,0.00,,SKC,0.00,VWS V14.00,2013-09-03 23:18:00,
2013-09-03 16:20:00,90.3,30.9,29.88,WNW,292,7.8,7.8,12,0.00,,SKC,0.00,VWS V14.00,2013-09-03 23:20:00,
2013-09-03 16:22:00,90.3,30.9,29.88,NW,315,5.4,7.8,12,0.00,,SKC,0.00,VWS V14.00,2013-09-03 23:22:00,
2013-09-03 16:23:00,90.3,30.9,29.88,NW,315,5.4,7.8,12,0.00,,SKC,0.00,VWS V14.00,2013-09-03 23:23:00,
2013-09-03 16:25:00,90.0,26.2,29.88,WNW,292,3.8,7.8,10,0.00,,SKC,0.00,VWS V14.00,2013-09-03 23:25:00,
2013-09-03 16:27:00,90.1,26.3,29.88,West,270,2.5,4.7,10,0.00,,SKC,0.00,VWS V14.00,2013-09-03 23:27:00,
2013-09-03 16:28:00,90.7,26.7,29.88,West,270,0.0,4.7,10,0.00,,SKC,0.00,VWS V14.00,2013-09-03 23:28:00,
2013-09-03 16:29:00,90.7,26.7,29.88,West,270,0.0,4.7,10,0.00,,SKC,0.00,VWS V14.00,2013-09-03 23:29:00,
2013-09-03 16:30:00,90.9,26.8,29.88,West,270,0.0,4.7,10,0.00,,SKC,0.00,VWS V14.00,2013-09-03 23:30:00,
2013-09-03 16:32:00,91.2,31.6,29.88,NNW,338,1.6,2.5,12,0.00,,SKC,0.00,VWS V14.00,2013-09-03 23:32:00,
2013-09-03 16:33:00,91.4,31.7,29.88,West,270,2.0,2.7,12,0.00,,SKC,0.00,VWS V14.00,2013-09-03 23:33:00,
2013-09-03 16:34:00,91.6,31.9,29.88,West,270,2.2,2.7,12,0.00,,SKC,0.00,VWS V14.00,2013-09-03 23:34:00,
2013-09-03 16:35:00,91.6,31.9,29.88,West,270,2.2,2.7,12,0.00,,SKC,0.00,VWS V14.00,2013-09-03 23:35:00,
2013-09-03 16:37:00,92.5,32.5,29.88,East,90,2.5,2.5,12,0.00,,SKC,0.00,VWS V14.00,2013-09-03 23:37:00,
2013-09-03 16:39:00,92.3,32.4,29.88,ESE,112,0.0,2.5,12,0.00,,SKC,0.00,VWS V14.00,2013-09-03 23:39:00,
2013-09-03 16:40:00,92.3,32.4,29.88,ESE,112,0.0,2.5,12,0.00,,SKC,0.00,VWS V14.00,2013-09-03 23:40:00,
2013-09-03 16:41:00,93.6,31.2,29.88,SE,135,0.0,2.5,11,0.00,,SKC,0.00,VWS V14.00,2013-09-03 23:41:00,
2013-09-03 16:42:00,93.9,31.5,29.88,NNW,338,0.0,0.0,11,0.00,,SKC,0.00,VWS V14.00,2013-09-03 23:42:00,
2013-09-03 16:44:00,94.1,31.6,29.88,NNW,338,0.0,0.0,11,0.00,,SKC,0.00,VWS V14.00,2013-09-03 23:44:00,
2013-09-03 16:45:00,94.8,32.2,29.88,SW,225,0.0,0.0,11,0.00,,SKC,0.00,VWS V14.00,2013-09-03 23:45:00,
2013-09-03 16:46:00,94.8,32.2,29.88,SW,225,0.0,0.0,11,0.00,,SKC,0.00,VWS V14.00,2013-09-03 23:46:00,
2013-09-03 16:47:00,94.6,32.0,29.88,West,270,2.5,3.8,11,0.00,,SKC,0.00,VWS V14.00,2013-09-03 23:47:00,
2013-09-03 16:49:00,95.4,32.6,29.88,NW,315,4.7,4.7,11,0.00,,SKC,0.00,VWS V14.00,2013-09-03 23:49:00,
2013-09-03 16:50:00,95.4,32.6,29.88,WNW,292,5.4,6.9,11,0.00,,SKC,0.00,VWS V14.00,2013-09-03 23:50:00,
2013-09-03 16:51:00,95.2,32.5,29.88,WNW,292,5.4,6.9,11,0.00,,SKC,0.00,VWS V14.00,2013-09-03 23:51:00,
2013-09-03 16:52:00,95.2,32.5,29.88,West,270,6.5,6.9,11,0.00,,SKC,0.00,VWS V14.00,2013-09-03 23:52:00,
2013-09-03 16:55:00,93.0,33.0,29.88,SW,225,5.6,7.8,12,0.00,,SKC,0.00,VWS V14.00,2013-09-03 23:55:00,
2013-09-03 16:56:00,93.0,33.0,29.88,SW,225,5.6,7.8,12,0.00,,SKC,0.00,VWS V14.00,2013-09-03 23:56:00,
2013-09-03 16:57:00,92.7,32.7,29.88,WNW,292,7.8,7.8,12,0.00,,SKC,0.00,VWS V14.00,2013-09-03 23:57:00,
2013-09-03 17:00:00,92.7,32.7,29.88,NW,315,7.6,8.5,12,0.00,,SKC,0.00,VWS V14.00,2013-09-04 00:00:00,
2013-09-03 17:01:00,92.3,32.4,29.88,West,270,6.5,10.3,12,0.00,,SKC,0.00,VWS V14.00,2013-09-04 00:01:00,
2013-09-03 17:02:00,92.3,32.4,29.88,West,270,9.8,13.2,12,0.00,,SKC,0.00,VWS V14.00,2013-09-04 00:02:00,
2013-09-03 17:05:00,91.6,31.9,29.88,West,270,10.5,13.2,12,0.00,,SKC,0.00,VWS V14.00,2013-09-04 00:05:00,
2013-09-03 17:06:00,91.6,31.9,29.88,WSW,248,3.6,3.6,12,0.00,,SKC,0.00,VWS V14.00,2013-09-04 00:06:00,
2013-09-03 17:08:00,92.1,32.3,29.88,WSW,248,5.6,5.6,12,0.00,,SKC,0.00,VWS V14.00,2013-09-04 00:08:00,
2013-09-03 17:10:00,91.9,32.1,29.88,West,270,6.3,10.1,12,0.00,,SKC,0.00,VWS V14.00,2013-09-04 00:10:00,
2013-09-03 17:11:00,91.8,32.0,29.88,West,270,6.5,10.1,12,0.00,,SKC,0.00,VWS V14.00,2013-09-04 00:11:00,
2013-09-03 17:13:00,91.4,31.7,29.88,West,270,10.7,10.7,12,0.00,,SKC,0.00,VWS V14.00,2013-09-04 00:13:00,
2013-09-03 17:15:00,91.0,31.4,29.88,West,270,10.3,12.5,12,0.00,,SKC,0.00,VWS V14.00,2013-09-04 00:15:00,
2013-09-03 17:16:00,90.9,31.3,29.88,WNW,292,6.5,8.5,12,0.00,,SKC,0.00,VWS V14.00,2013-09-04 00:16:00,
2013-09-03 17:18:00,90.9,31.3,29.88,NW,315,7.4,8.7,12,0.00,,SKC,0.00,VWS V14.00,2013-09-04 00:18:00,
2013-09-03 17:20:00,91.0,31.4,29.88,WNW,292,6.3,8.7,12,0.00,,SKC,0.00,VWS V14.00,2013-09-04 00:20:00,
2013-09-03 17:21:00,91.0,31.4,29.88,WNW,292,6.3,8.7,12,0.00,,SKC,0.00,VWS V14.00,2013-09-04 00:21:00,
2013-09-03 17:22:00,91.0,31.4,29.88,NW,315,5.6,6.3,12,0.00,,SKC,0.00,VWS V14.00,2013-09-04 00:22:00,
2013-09-03 17:23:00,90.9,31.3,29.88,West,270,7.6,7.6,12,0.00,,SKC,0.00,VWS V14.00,2013-09-04 00:23:00,
2013-09-03 17:24:00,90.9,31.3,29.88,West,270,7.6,7.6,12,0.00,,SKC,0.00,VWS V14.00,2013-09-04 00:24:00,
2013-09-03 17:25:00,90.7,31.2,29.88,West,270,8.1,11.0,12,0.00,,SKC,0.00,VWS V14.00,2013-09-04 00:25:00,
2013-09-03 17:26:00,90.7,31.2,29.88,West,270,8.1,11.0,12,0.00,,SKC,0.00,VWS V14.00,2013-09-04 00:26:00,
2013-09-03 17:27:00,90.9,31.3,29.88,West,270,10.3,11.0,12,0.00,,SKC,0.00,VWS V14.00,2013-09-04 00:27:00,
2013-09-03 17:28:00,90.7,31.2,29.85,WSW,248,9.6,11.0,12,0.00,,SKC,0.00,VWS V14.00,2013-09-04 00:28:00,
2013-09-03 17:29:00,90.5,31.0,29.85,WSW,248,10.5,11.0,12,0.00,,SKC,0.00,VWS V14.00,2013-09-04 00:29:00,
2013-09-03 17:30:00,90.3,30.9,29.85,West,270,6.5,11.0,12,0.00,,SKC,0.00,VWS V14.00,2013-09-04 00:30:00,
2013-09-03 17:31:00,90.3,30.9,29.85,West,270,6.5,11.0,12,0.00,,SKC,0.00,VWS V14.00,2013-09-04 00:31:00,
2013-09-03 17:32:00,90.1,30.7,29.85,NW,315,12.8,12.8,12,0.00,,SKC,0.00,VWS V14.00,2013-09-04 00:32:00,
2013-09-03 17:33:00,90.3,30.9,29.85,WNW,292,6.3,12.8,12,0.00,,SKC,0.00,VWS V14.00,2013-09-04 00:33:00,
2013-09-03 17:34:00,90.3,30.9,29.85,NNW,338,6.3,12.8,12,0.00,,SKC,0.00,VWS V14.00,2013-09-04 00:34:00,
2013-09-03 17:35:00,90.1,30.7,29.85,WNW,292,9.8,12.8,12,0.00,,SKC,0.00,VWS V14.00,2013-09-04 00:35:00,
2013-09-03 17:36:00,90.1,30.7,29.85,SW,225,10.1,10.1,12,0.00,,SKC,0.00,VWS V14.00,2013-09-04 00:36:00,
2013-09-03 17:37:00,90.3,30.9,29.85,West,270,10.7,10.7,12,0.00,,SKC,0.00,VWS V14.00,2013-09-04 00:37:00,
2013-09-03 17:38:00,90.3,30.9,29.85,West,270,10.7,10.7,12,0.00,,SKC,0.00,VWS V14.00,2013-09-04 00:38:00,
2013-09-03 17:40:00,90.3,30.9,29.85,WNW,292,7.8,13.2,12,0.00,,SKC,0.00,VWS V14.00,2013-09-04 00:40:00,
2013-09-03 17:41:00,90.1,30.7,29.85,WNW,292,7.6,7.8,12,0.00,,SKC,0.00,VWS V14.00,2013-09-04 00:41:00,
2013-09-03 17:42:00,90.1,30.7,29.85,West,270,6.5,7.8,12,0.00,,SKC,0.00,VWS V14.00,2013-09-04 00:42:00,
2013-09-03 17:43:00,90.3,30.9,29.85,NW,315,10.5,10.5,12,0.00,,SKC,0.00,VWS V14.00,2013-09-04 00:43:00,
2013-09-03 17:45:00,89.8,30.5,29.88,WNW,292,9.2,12.5,12,0.00,,SKC,0.00,VWS V14.00,2013-09-04 00:45:00,
2013-09-03 17:46:00,89.6,30.3,29.88,West,270,10.5,10.5,12,0.00,,SKC,0.00,VWS V14.00,2013-09-04 00:46:00,
2013-09-03 17:47:00,89.6,30.3,29.88,WNW,292,10.5,10.5,12,0.00,,SKC,0.00,VWS V14.00,2013-09-04 00:47:00,
2013-09-03 17:48:00,89.6,30.3,29.88,WNW,292,10.5,10.5,12,0.00,,SKC,0.00,VWS V14.00,2013-09-04 00:48:00,
2013-09-03 17:50:00,89.2,32.0,29.88,WNW,292,6.3,10.7,13,0.00,,SKC,0.00,VWS V14.00,2013-09-04 00:50:00,
2013-09-03 17:51:00,89.4,32.2,29.88,NW,315,5.6,6.3,13,0.00,,SKC,0.00,VWS V14.00,2013-09-04 00:51:00,
2013-09-03 17:52:00,89.4,32.2,29.88,WNW,292,5.8,6.3,13,0.00,,SKC,0.00,VWS V14.00,2013-09-04 00:52:00,
2013-09-03 17:53:00,89.4,32.2,29.88,WNW,292,5.4,6.3,13,0.00,,SKC,0.00,VWS V14.00,2013-09-04 00:53:00,
2013-09-03 17:54:00,89.2,32.0,29.88,West,270,13.6,13.6,13,0.00,,SKC,0.00,VWS V14.00,2013-09-04 00:54:00,
2013-09-03 17:55:00,89.1,31.9,29.88,West,270,9.0,13.6,13,0.00,,SKC,0.00,VWS V14.00,2013-09-04 00:55:00,
2013-09-03 17:56:00,88.9,25.3,29.88,West,270,10.5,10.5,10,0.00,,SKC,0.00,VWS V14.00,2013-09-04 00:56:00,
2013-09-03 17:57:00,88.9,25.3,29.88,West,270,10.5,10.5,10,0.00,,SKC,0.00,VWS V14.00,2013-09-04 00:57:00,
2013-09-03 17:58:00,89.1,25.5,29.88,West,270,4.9,10.5,10,0.00,,SKC,0.00,VWS V14.00,2013-09-04 00:58:00,
2013-09-03 18:00:00,89.1,25.5,29.88,West,270,5.6,10.5,10,0.00,,SKC,0.00,VWS V14.00,2013-09-04 01:00:00,
2013-09-03 18:02:00,89.2,32.0,29.88,West,270,7.8,7.8,13,0.00,,SKC,0.00,VWS V14.00,2013-09-04 01:02:00,
2013-09-03 18:03:00,89.2,32.0,29.88,WNW,292,7.4,7.8,13,0.00,,SKC,0.00,VWS V14.00,2013-09-04 01:03:00,
2013-09-03 18:04:00,88.9,31.7,29.88,WSW,248,5.8,7.8,13,0.00,,SKC,0.00,VWS V14.00,2013-09-04 01:04:00,
2013-09-03 18:05:00,88.7,25.2,29.88,WNW,292,8.7,10.1,10,0.00,,SKC,0.00,VWS V14.00,2013-09-04 01:05:00,
2013-09-03 18:07:00,88.5,25.1,29.88,WNW,292,10.1,10.3,10,0.00,,SKC,0.00,VWS V14.00,2013-09-04 01:07:00,
2013-09-03 18:08:00,88.5,25.1,29.88,WNW,292,10.1,10.3,10,0.00,,SKC,0.00,VWS V14.00,2013-09-04 01:08:00,
2013-09-03 18:10:00,88.5,25.1,29.88,WNW,292,7.2,10.3,10,0.00,,SKC,0.00,VWS V14.00,2013-09-04 01:10:00,
2013-09-03 18:13:00,87.8,24.5,29.88,WSW,248,6.3,7.8,10,0.00,,SKC,0.00,VWS V14.00,2013-09-04 01:13:00,
2013-09-03 18:15:00,87.8,24.5,29.88,WSW,248,7.6,7.8,10,0.00,,SKC,0.00,VWS V14.00,2013-09-04 01:15:00,
2013-09-03 18:16:00,87.6,26.7,29.88,West,270,7.6,7.8,11,0.00,,SKC,0.00,VWS V14.00,2013-09-04 01:16:00,
2013-09-03 18:18:00,87.4,26.5,29.88,WSW,248,6.0,9.8,11,0.00,,SKC,0.00,VWS V14.00,2013-09-04 01:18:00,
2013-09-03 18:19:00,87.3,26.4,29.88,West,270,7.4,9.8,11,0.00,,SKC,0.00,VWS V14.00,2013-09-04 01:19:00,
2013-09-03 18:20:00,87.1,26.3,29.88,West,270,7.4,10.1,11,0.00,,SKC,0.00,VWS V14.00,2013-09-04 01:20:00,
2013-09-03 18:21:00,87.1,26.3,29.88,West,270,7.4,10.1,11,0.00,,SKC,0.00,VWS V14.00,2013-09-04 01:21:00,
2013-09-03 18:23:00,87.1,26.3,29.88,West,270,6.0,8.7,11,0.00,,SKC,0.00,VWS V14.00,2013-09-04 01:23:00,
2013-09-03 18:24:00,87.1,26.3,29.88,WNW,292,8.1,8.7,11,0.00,,SKC,0.00,VWS V14.00,2013-09-04 01:24:00,
2013-09-03 18:25:00,86.9,26.1,29.88,West,270,11.9,11.9,11,0.00,,SKC,0.00,VWS V14.00,2013-09-04 01:25:00,
2013-09-03 18:26:00,86.9,26.1,29.88,West,270,11.9,11.9,11,0.00,,SKC,0.00,VWS V14.00,2013-09-04 01:26:00,
2013-09-03 18:28:00,86.7,26.0,29.88,WNW,292,9.2,11.9,11,0.00,,SKC,0.00,VWS V14.00,2013-09-04 01:28:00,
2013-09-03 18:29:00,86.7,26.0,29.88,WSW,248,8.5,11.9,11,0.00,,SKC,0.00,VWS V14.00,2013-09-04 01:29:00,
2013-09-03 18:30:00,86.4,25.7,29.88,West,270,6.3,11.9,11,0.00,,SKC,0.00,VWS V14.00,2013-09-04 01:30:00,
2013-09-03 18:31:00,86.4,25.7,29.88,West,270,6.5,6.5,11,0.00,,SKC,0.00,VWS V14.00,2013-09-04 01:31:00,
2013-09-03 18:32:00,86.4,25.7,29.88,West,270,6.3,7.4,11,0.00,,SKC,0.00,VWS V14.00,2013-09-04 01:32:00,
2013-09-03 18:33:00,86.2,25.6,29.88,West,270,4.9,8.7,11,0.00,,SKC,0.00,VWS V14.00,2013-09-04 01:33:00,
2013-09-03 18:34:00,86.2,25.6,29.88,West,270,5.8,8.7,11,0.00,,SKC,0.00,VWS V14.00,2013-09-04 01:34:00,
2013-09-03 18:35:00,86.4,25.7,29.88,West,270,8.7,8.7,11,0.00,,SKC,0.00,VWS V14.00,2013-09-04 01:35:00,
2013-09-03 18:36:00,86.2,25.6,29.88,WNW,292,10.1,10.1,11,0.00,,SKC,0.00,VWS V14.00,2013-09-04 01:36:00,
2013-09-03 18:37:00,86.2,25.6,29.88,WNW,292,7.8,10.1,11,0.00,,SKC,0.00,VWS V14.00,2013-09-04 01:37:00,
2013-09-03 18:38:00,86.2,25.6,29.88,WNW,292,7.8,10.1,11,0.00,,SKC,0.00,VWS V14.00,2013-09-04 01:38:00,
2013-09-03 18:39:00,86.2,25.6,29.88,West,270,5.4,10.1,11,0.00,,SKC,0.00,VWS V14.00,2013-09-04 01:39:00,
2013-09-03 18:40:00,86.0,25.4,29.88,WNW,292,7.8,10.1,11,0.00,,SKC,0.00,VWS V14.00,2013-09-04 01:40:00,
2013-09-03 18:42:00,85.6,25.2,29.88,West,270,7.6,8.1,11,0.00,,SKC,0.00,VWS V14.00,2013-09-04 01:42:00,
2013-09-03 18:43:00,85.6,25.2,29.88,West,270,7.8,8.1,11,0.00,,SKC,0.00,VWS V14.00,2013-09-04 01:43:00,
2013-09-03 18:44:00,85.6,25.2,29.88,West,270,4.7,8.1,11,0.00,,SKC,0.00,VWS V14.00,2013-09-04 01:44:00,
2013-09-03 18:45:00,85.6,25.2,29.88,West,270,4.7,8.1,11,0.00,,SKC,0.00,VWS V14.00,2013-09-04 01:45:00,
2013-09-03 18:48:00,85.3,24.9,29.88,West,270,8.5,8.7,11,0.00,,SKC,0.00,VWS V14.00,2013-09-04 01:48:00,
2013-09-03 18:49:00,85.1,24.7,29.88,WNW,292,8.7,9.6,11,0.00,,SKC,0.00,VWS V14.00,2013-09-04 01:49:00,
2013-09-03 18:50:00,85.1,24.7,29.88,West,270,9.6,9.6,11,0.00,,SKC,0.00,VWS V14.00,2013-09-04 01:50:00,
2013-09-03 18:54:00,84.9,24.6,29.88,West,270,5.6,8.7,11,0.00,,SKC,0.00,VWS V14.00,2013-09-04 01:54:00,
2013-09-03 18:55:00,84.7,24.5,29.88,West,270,8.5,8.7,11,0.00,,SKC,0.00,VWS V14.00,2013-09-04 01:55:00,
2013-09-03 18:59:00,84.6,24.3,29.88,West,270,8.1,8.1,11,0.00,,SKC,0.00,VWS V14.00,2013-09-04 01:59:00,
2013-09-03 19:00:00,84.4,24.2,29.88,WSW,248,6.3,8.1,11,0.00,,SKC,0.00,VWS V14.00,2013-09-04 02:00:00,
2013-09-03 19:01:00,84.4,24.2,29.88,West,270,4.3,4.3,11,0.00,,SKC,0.00,VWS V14.00,2013-09-04 02:01:00,
2013-09-03 19:04:00,84.4,24.2,29.88,West,270,4.3,7.4,11,0.00,,SKC,0.00,VWS V14.00,2013-09-04 02:04:00,
2013-09-03 19:05:00,84.2,24.0,29.88,West,270,4.0,7.4,11,0.00,,SKC,0.00,VWS V14.00,2013-09-04 02:05:00,
2013-09-03 19:06:00,84.0,23.9,29.88,West,270,6.5,6.5,11,0.00,,SKC,0.00,VWS V14.00,2013-09-04 02:06:00,
2013-09-03 19:09:00,83.8,23.8,29.88,West,270,3.6,6.5,11,0.00,,SKC,0.00,VWS V14.00,2013-09-04 02:09:00,
2013-09-03 19:10:00,83.8,23.8,29.88,West,270,4.3,6.5,11,0.00,,SKC,0.00,VWS V14.00,2013-09-04 02:10:00,
2013-09-03 19:12:00,83.7,23.6,29.88,West,270,5.6,6.5,11,0.00,,SKC,0.00,VWS V14.00,2013-09-04 02:12:00,
2013-09-03 19:14:00,83.7,23.6,29.88,West,270,3.4,6.5,11,0.00,,SKC,0.00,VWS V14.00,2013-09-04 02:14:00,
2013-09-03 19:15:00,83.5,23.5,29.88,West,270,7.4,7.4,11,0.00,,SKC,0.00,VWS V14.00,2013-09-04 02:15:00,
2013-09-03 19:16:00,83.5,23.5,29.88,West,270,2.5,6.5,11,0.00,,SKC,0.00,VWS V14.00,2013-09-04 02:16:00,
2013-09-03 19:17:00,83.3,23.4,29.88,SW,225,6.0,8.1,11,0.00,,SKC,0.00,VWS V14.00,2013-09-04 02:17:00,
2013-09-03 19:19:00,83.1,23.2,29.88,West,270,6.0,8.1,11,0.00,,SKC,0.00,VWS V14.00,2013-09-04 02:19:00,
2013-09-03 19:20:00,83.1,23.2,29.88,West,270,6.0,8.1,11,0.00,,SKC,0.00,VWS V14.00,2013-09-04 02:20:00,
2013-09-03 19:21:00,83.1,23.2,29.88,West,270,6.3,8.1,11,0.00,,SKC,0.00,VWS V14.00,2013-09-04 02:21:00,
2013-09-03 19:22:00,83.1,23.2,29.88,WNW,292,6.5,6.5,11,0.00,,SKC,0.00,VWS V14.00,2013-09-04 02:22:00,
2013-09-03 19:24:00,82.9,23.1,29.88,WNW,292,3.8,6.5,11,0.00,,SKC,0.00,VWS V14.00,2013-09-04 02:24:00,
2013-09-03 19:25:00,82.8,23.0,29.88,West,270,4.9,6.5,11,0.00,,SKC,0.00,VWS V14.00,2013-09-04 02:25:00,
2013-09-03 19:26:00,82.8,23.0,29.88,West,270,2.9,6.5,11,0.00,,SKC,0.00,VWS V14.00,2013-09-04 02:26:00,
2013-09-03 19:27:00,82.8,23.0,29.88,West,270,2.9,6.5,11,0.00,,SKC,0.00,VWS V14.00,2013-09-04 02:27:00,
2013-09-03 19:29:00,82.8,23.0,29.91,West,270,0.9,6.5,11,0.00,,SKC,0.00,VWS V14.00,2013-09-04 02:29:00,
2013-09-03 19:30:00,82.8,23.0,29.91,WSW,248,4.9,6.5,11,0.00,,SKC,0.00,VWS V14.00,2013-09-04 02:30:00,
2013-09-03 19:31:00,82.6,22.8,29.91,West,270,4.3,4.3,11,0.00,,SKC,0.00,VWS V14.00,2013-09-04 02:31:00,
2013-09-03 19:33:00,82.6,22.8,29.91,West,270,3.4,4.9,11,0.00,,SKC,0.00,VWS V14.00,2013-09-04 02:33:00,
2013-09-03 19:34:00,82.4,22.7,29.91,West,270,4.9,5.8,11,0.00,,SKC,0.00,VWS V14.00,2013-09-04 02:34:00,
2013-09-03 19:35:00,82.4,22.7,29.91,West,270,4.9,5.8,11,0.00,,SKC,0.00,VWS V14.00,2013-09-04 02:35:00,
2013-09-03 19:36:00,82.2,24.6,29.91,West,270,5.8,5.8,12,0.00,,SKC,0.00,VWS V14.00,2013-09-04 02:36:00,
2013-09-03 19:38:00,82.2,24.6,29.91,West,270,7.8,8.7,12,0.00,,SKC,0.00,VWS V14.00,2013-09-04 02:38:00,
2013-09-03 19:39:00,82.2,24.6,29.91,WSW,248,5.6,8.7,12,0.00,,SKC,0.00,VWS V14.00,2013-09-04 02:39:00,
2013-09-03 19:40:00,82.2,24.6,29.91,West,270,4.9,8.7,12,0.00,,SKC,0.00,VWS V14.00,2013-09-04 02:40:00,
2013-09-03 19:41:00,82.0,24.5,29.91,West,270,3.1,4.9,12,0.00,,SKC,0.00,VWS V14.00,2013-09-04 02:41:00,
2013-09-03 19:42:00,82.0,24.5,29.91,WNW,292,4.9,4.9,12,0.00,,SKC,0.00,VWS V14.00,2013-09-04 02:42:00,
2013-09-03 19:43:00,82.0,24.5,29.91,WSW,248,4.0,4.9,12,0.00,,SKC,0.00,VWS V14.00,2013-09-04 02:43:00,
2013-09-03 19:45:00,81.9,24.3,29.91,West,270,4.3,6.5,12,0.00,,SKC,0.00,VWS V14.00,2013-09-04 02:45:00,
2013-09-03 19:46:00,81.7,24.2,29.91,West,270,3.4,6.0,12,0.00,,SKC,0.00,VWS V14.00,2013-09-04 02:46:00,
2013-09-03 19:47:00,81.7,24.2,29.91,WSW,248,4.9,6.0,12,0.00,,SKC,0.00,VWS V14.00,2013-09-04 02:47:00,
2013-09-03 19:48:00,81.5,24.0,29.91,WSW,248,4.0,6.0,12,0.00,,SKC,0.00,VWS V14.00,2013-09-04 02:48:00,
2013-09-03 19:50:00,81.5,24.0,29.91,West,270,3.8,6.0,12,0.00,,SKC,0.00,VWS V14.00,2013-09-04 02:50:00,
2013-09-03 19:51:00,81.5,24.0,29.91,West,270,3.8,6.0,12,0.00,,SKC,0.00,VWS V14.00,2013-09-04 02:51:00,
2013-09-03 19:53:00,81.1,23.8,29.91,West,270,2.7,6.0,12,0.00,,SKC,0.00,VWS V14.00,2013-09-04 02:53:00,
2013-09-03 19:54:00,81.1,23.8,29.91,WNW,292,4.7,6.0,12,0.00,,SKC,0.00,VWS V14.00,2013-09-04 02:54:00,
2013-09-03 19:55:00,81.0,23.6,29.91,West,270,3.8,6.0,12,0.00,,SKC,0.00,VWS V14.00,2013-09-04 02:55:00,
2013-09-03 19:56:00,81.0,23.6,29.91,West,270,3.6,6.0,12,0.00,,SKC,0.00,VWS V14.00,2013-09-04 02:56:00,
2013-09-03 19:59:00,80.8,23.5,29.91,WNW,292,2.5,6.0,12,0.00,,SKC,0.00,VWS V14.00,2013-09-04 02:59:00,
2013-09-03 20:00:00,80.6,23.4,29.91,West,270,1.6,6.0,12,0.00,,SKC,0.00,VWS V14.00,2013-09-04 03:00:00,
2013-09-03 20:02:00,80.4,23.2,29.91,WSW,248,2.5,3.8,12,0.00,,SKC,0.00,VWS V14.00,2013-09-04 03:02:00,
2013-09-03 20:04:00,80.2,23.1,29.91,WSW,248,0.0,3.8,12,0.00,,SKC,0.00,VWS V14.00,2013-09-04 03:04:00,
2013-09-03 20:05:00,80.1,22.9,29.91,WSW,248,0.0,3.8,12,0.00,,SKC,0.00,VWS V14.00,2013-09-04 03:05:00,
2013-09-03 20:07:00,80.1,22.9,29.91,SSE,158,3.4,3.4,12,0.00,,SKC,0.00,VWS V14.00,2013-09-04 03:07:00,
2013-09-03 20:09:00,79.5,27.9,29.91,SSE,158,3.1,4.0,15,0.00,,SKC,0.00,VWS V14.00,2013-09-04 03:09:00,
2013-09-03 20:10:00,79.3,27.7,29.91,SE,135,4.3,6.5,15,0.00,,SKC,0.00,VWS V14.00,2013-09-04 03:10:00,
2013-09-03 20:12:00,78.6,27.1,29.91,SE,135,4.9,5.6,15,0.00,,SKC,0.00,VWS V14.00,2013-09-04 03:12:00,
2013-09-03 20:14:00,78.6,27.1,29.91,SE,135,4.3,5.6,15,0.00,,SKC,0.00,VWS V14.00,2013-09-04 03:14:00,
2013-09-03 20:15:00,78.6,27.1,29.91,SE,135,3.6,5.6,15,0.00,,SKC,0.00,VWS V14.00,2013-09-04 03:15:00,
2013-09-03 20:18:00,77.7,30.9,29.94,SE,135,6.0,6.0,18,0.00,,SKC,0.00,VWS V14.00,2013-09-04 03:18:00,
2013-09-03 20:19:00,77.2,33.0,29.94,SE,135,4.9,8.1,20,0.00,,SKC,0.00,VWS V14.00,2013-09-04 03:19:00,
2013-09-03 20:20:00,77.2,33.0,29.94,SE,135,4.9,8.1,20,0.00,,SKC,0.00,VWS V14.00,2013-09-04 03:20:00,
2013-09-03 20:21:00,77.0,32.9,29.94,South,180,4.3,8.1,20,0.00,,SKC,0.00,VWS V14.00,2013-09-04 03:21:00,
2013-09-03 20:23:00,76.8,34.0,29.94,ESE,112,3.4,7.4,21,0.00,,SKC,0.00,VWS V14.00,2013-09-04 03:23:00,
2013-09-03 20:24:00,76.5,33.7,29.94,SE,135,6.3,7.4,21,0.00,,SKC,0.00,VWS V14.00,2013-09-04 03:24:00,
2013-09-03 20:25:00,76.5,33.7,29.94,SE,135,4.0,7.4,21,0.00,,SKC,0.00,VWS V14.00,2013-09-04 03:25:00,
2013-09-03 20:26:00,76.5,33.7,29.94,SE,135,4.0,4.0,21,0.00,,SKC,0.00,VWS V14.00,2013-09-04 03:26:00,
2013-09-03 20:28:00,76.1,33.4,29.94,ESE,112,4.7,5.6,21,0.00,,SKC,0.00,VWS V14.00,2013-09-04 03:28:00,
2013-09-03 20:29:00,75.9,33.2,29.94,ESE,112,4.0,5.6,21,0.00,,SKC,0.00,VWS V14.00,2013-09-04 03:29:00,
2013-09-03 20:30:00,75.9,33.2,29.94,East,90,4.9,5.6,21,0.00,,SKC,0.00,VWS V14.00,2013-09-04 03:30:00,
2013-09-03 20:31:00,75.9,33.2,29.94,East,90,4.3,4.3,21,0.00,,SKC,0.00,VWS V14.00,2013-09-04 03:31:00,
2013-09-03 20:33:00,75.6,34.1,29.94,East,90,6.0,6.5,22,0.00,,SKC,0.00,VWS V14.00,2013-09-04 03:33:00,
2013-09-03 20:34:00,75.4,33.9,29.94,East,90,4.3,6.5,22,0.00,,SKC,0.00,VWS V14.00,2013-09-04 03:34:00,
2013-09-03 20:35:00,75.2,34.9,29.94,SE,135,6.3,7.8,23,0.00,,SKC,0.00,VWS V14.00,2013-09-04 03:35:00,
2013-09-03 20:36:00,75.2,34.9,29.94,East,90,5.4,6.3,23,0.00,,SKC,0.00,VWS V14.00,2013-09-04 03:36:00,
2013-09-03 20:38:00,75.0,35.8,29.94,SE,135,3.8,6.3,24,0.00,,SKC,0.00,VWS V14.00,2013-09-04 03:38:00,
2013-09-03 20:39:00,75.0,35.8,29.94,SE,135,3.6,6.3,24,0.00,,SKC,0.00,VWS V14.00,2013-09-04 03:39:00,
2013-09-03 20:40:00,75.0,35.8,29.94,SE,135,3.6,6.3,24,0.00,,SKC,0.00,VWS V14.00,2013-09-04 03:40:00,
2013-09-03 20:41:00,75.0,35.8,29.94,ESE,112,2.9,3.4,24,0.00,,SKC,0.00,VWS V14.00,2013-09-04 03:41:00,
2013-09-03 20:43:00,74.5,36.4,29.94,SE,135,4.3,4.3,25,0.00,,SKC,0.00,VWS V14.00,2013-09-04 03:43:00,
2013-09-03 20:44:00,74.3,37.2,29.94,East,90,2.7,4.7,26,0.00,,SKC,0.00,VWS V14.00,2013-09-04 03:44:00,
2013-09-03 20:45:00,74.3,37.2,29.94,ESE,112,3.1,4.7,26,0.00,,SKC,0.00,VWS V14.00,2013-09-04 03:45:00,
2013-09-03 20:46:00,74.3,37.2,29.94,ESE,112,3.8,3.8,26,0.00,,SKC,0.00,VWS V14.00,2013-09-04 03:46:00,
2013-09-03 20:48:00,73.9,37.9,29.94,SE,135,3.8,4.0,27,0.00,,SKC,0.00,VWS V14.00,2013-09-04 03:48:00,
2013-09-03 20:49:00,73.8,37.7,29.94,SE,135,2.7,4.0,27,0.00,,SKC,0.00,VWS V14.00,2013-09-04 03:49:00,
2013-09-03 20:50:00,73.8,38.7,29.94,ESE,112,3.8,4.0,28,0.00,,SKC,0.00,VWS V14.00,2013-09-04 03:50:00,
2013-09-03 20:51:00,73.8,38.7,29.94,ESE,112,5.4,5.4,28,0.00,,SKC,0.00,VWS V14.00,2013-09-04 03:51:00,
2013-09-03 20:53:00,73.8,38.7,29.94,SE,135,3.8,6.0,28,0.00,,SKC,0.00,VWS V14.00,2013-09-04 03:53:00,
2013-09-03 20:55:00,73.8,38.7,29.94,SE,135,5.4,6.5,28,0.00,,SKC,0.00,VWS V14.00,2013-09-04 03:55:00,
2013-09-03 20:56:00,73.6,39.4,29.94,SE,135,5.4,5.4,29,0.00,,SKC,0.00,VWS V14.00,2013-09-04 03:56:00,
2013-09-03 20:57:00,73.6,39.4,29.94,ESE,112,4.0,5.6,29,0.00,,SKC,0.00,VWS V14.00,2013-09-04 03:57:00,
2013-09-03 20:58:00,73.6,39.4,29.94,ESE,112,4.0,5.6,29,0.00,,SKC,0.00,VWS V14.00,2013-09-04 03:58:00,
2013-09-03 21:00:00,73.6,39.4,29.94,SE,135,3.4,5.6,29,0.00,,SKC,0.00,VWS V14.00,2013-09-04 04:00:00,
2013-09-03 21:01:00,73.6,39.4,29.94,SE,135,3.4,5.6,29,0.00,,SKC,0.00,VWS V14.00,2013-09-04 04:01:00,
2013-09-03 21:06:00,73.6,38.5,29.94,SE,135,4.3,5.4,28,0.00,,SKC,0.00,VWS V14.00,2013-09-04 04:06:00,
2013-09-03 21:07:00,73.6,38.5,29.94,East,90,4.3,5.4,28,0.00,,SKC,0.00,VWS V14.00,2013-09-04 04:07:00,
2013-09-03 21:10:00,73.6,38.5,29.94,East,90,3.6,5.4,28,0.00,,SKC,0.00,VWS V14.00,2013-09-04 04:10:00,
2013-09-03 21:11:00,73.6,38.5,29.94,East,90,3.6,5.4,28,0.00,,SKC,0.00,VWS V14.00,2013-09-04 04:11:00,
2013-09-03 21:12:00,73.6,38.5,29.94,East,90,4.9,4.9,28,0.00,,SKC,0.00,VWS V14.00,2013-09-04 04:12:00,
2013-09-03 21:13:00,73.4,38.3,29.94,East,90,4.0,6.0,28,0.00,,SKC,0.00,VWS V14.00,2013-09-04 04:13:00,
2013-09-03 21:15:00,73.6,38.5,29.94,East,90,4.0,6.0,28,0.00,,SKC,0.00,VWS V14.00,2013-09-04 04:15:00,
2013-09-03 21:16:00,73.6,38.5,29.94,East,90,3.8,4.3,28,0.00,,SKC,0.00,VWS V14.00,2013-09-04 04:16:00,
2013-09-03 21:17:00,73.6,37.6,29.94,East,90,4.3,4.3,27,0.00,,SKC,0.00,VWS V14.00,2013-09-04 04:17:00,
2013-09-03 21:18:00,73.6,37.6,29.94,ESE,112,0.0,4.3,27,0.00,,SKC,0.00,VWS V14.00,2013-09-04 04:18:00,
2013-09-03 21:19:00,73.6,37.6,29.94,East,90,0.0,4.3,27,0.00,,SKC,0.00,VWS V14.00,2013-09-04 04:19:00,
2013-09-03 21:20:00,73.4,37.4,29.94,East,90,3.1,4.3,27,0.00,,SKC,0.00,VWS V14.00,2013-09-04 04:20:00,
2013-09-03 21:21:00,73.4,37.4,29.94,ESE,112,3.1,3.1,27,0.00,,SKC,0.00,VWS V14.00,2013-09-04 04:21:00,
2013-09-03 21:22:00,73.4,37.4,29.94,East,90,2.9,4.7,27,0.00,,SKC,0.00,VWS V14.00,2013-09-04 04:22:00,
2013-09-03 21:24:00,73.4,37.4,29.94,East,90,4.7,5.8,27,0.00,,SKC,0.00,VWS V14.00,2013-09-04 04:24:00,
2013-09-03 21:25:00,73.4,37.4,29.94,East,90,3.4,5.8,27,0.00,,SKC,0.00,VWS V14.00,2013-09-04 04:25:00,
2013-09-03 21:26:00,73.4,37.4,29.94,NE,45,4.0,4.0,27,0.00,,SKC,0.00,VWS V14.00,2013-09-04 04:26:00,
2013-09-03 21:27:00,73.4,37.4,29.94,ENE,68,4.9,4.9,27,0.00,,SKC,0.00,VWS V14.00,2013-09-04 04:27:00,
2013-09-03 21:29:00,73.4,37.4,29.94,ENE,68,3.1,4.9,27,0.00,,SKC,0.00,VWS V14.00,2013-09-04 04:29:00,
2013-09-03 21:30:00,73.4,37.4,29.94,East,90,2.9,4.9,27,0.00,,SKC,0.00,VWS V14.00,2013-09-04 04:30:00,
2013-09-03 21:31:00,73.4,38.3,29.94,ENE,68,3.4,4.9,28,0.00,,SKC,0.00,VWS V14.00,2013-09-04 04:31:00,
2013-09-03 21:32:00,73.4,38.3,29.94,ENE,68,3.6,4.9,28,0.00,,SKC,0.00,VWS V14.00,2013-09-04 04:32:00,
2013-09-03 21:34:00,73.4,38.3,29.94,ENE,68,4.3,5.6,28,0.00,,SKC,0.00,VWS V14.00,2013-09-04 04:34:00,
2013-09-03 21:35:00,73.4,38.3,29.94,ENE,68,4.3,5.6,28,0.00,,SKC,0.00,VWS V14.00,2013-09-04 04:35:00,
2013-09-03 21:36:00,73.4,38.3,29.94,ESE,112,5.8,5.8,28,0.00,,SKC,0.00,VWS V14.00,2013-09-04 04:36:00,
2013-09-03 21:37:00,73.4,39.2,29.94,NE,45,5.6,5.8,29,0.00,,SKC,0.00,VWS V14.00,2013-09-04 04:37:00,
2013-09-03 21:39:00,73.2,39.1,29.94,East,90,3.8,5.8,29,0.00,,SKC,0.00,VWS V14.00,2013-09-04 04:39:00,
2013-09-03 21:40:00,73.0,38.9,29.94,East,90,2.2,5.8,29,0.00,,SKC,0.00,VWS V14.00,2013-09-04 04:40:00,
2013-09-03 21:41:00,73.0,38.9,29.94,East,90,5.6,6.5,29,0.00,,SKC,0.00,VWS V14.00,2013-09-04 04:41:00,
2013-09-03 21:42:00,73.0,38.9,29.94,East,90,4.3,6.5,29,0.00,,SKC,0.00,VWS V14.00,2013-09-04 04:42:00,
2013-09-03 21:43:00,73.0,38.9,29.94,East,90,4.9,6.5,29,0.00,,SKC,0.00,VWS V14.00,2013-09-04 04:43:00,
2013-09-03 21:45:00,73.0,38.9,29.94,ENE,68,4.9,6.5,29,0.00,,SKC,0.00,VWS V14.00,2013-09-04 04:45:00,
2013-09-03 21:46:00,72.9,39.7,29.94,East,90,2.9,3.6,30,0.00,,SKC,0.00,VWS V14.00,2013-09-04 04:46:00,
2013-09-03 21:47:00,72.9,39.7,29.94,East,90,2.9,3.6,30,0.00,,SKC,0.00,VWS V14.00,2013-09-04 04:47:00,
2013-09-03 21:48:00,72.9,39.7,29.94,NE,45,2.7,3.6,30,0.00,,SKC,0.00,VWS V14.00,2013-09-04 04:48:00,
2013-09-03 21:50:00,72.7,40.3,29.94,East,90,4.0,4.7,31,0.00,,SKC,0.00,VWS V14.00,2013-09-04 04:50:00,
2013-09-03 21:51:00,72.5,40.2,29.94,East,90,2.7,4.9,31,0.00,,SKC,0.00,VWS V14.00,2013-09-04 04:51:00,
2013-09-03 21:52:00,72.5,40.2,29.94,East,90,3.1,4.9,31,0.00,,SKC,0.00,VWS V14.00,2013-09-04 04:52:00,
2013-09-03 21:53:00,72.5,40.2,29.94,East,90,4.3,6.0,31,0.00,,SKC,0.00,VWS V14.00,2013-09-04 04:53:00,
2013-09-03 21:55:00,72.3,40.8,29.94,East,90,4.9,6.0,32,0.00,,SKC,0.00,VWS V14.00,2013-09-04 04:55:00,
2013-09-03 21:56:00,72.3,40.8,29.94,East,90,4.9,6.0,32,0.00,,SKC,0.00,VWS V14.00,2013-09-04 04:56:00,
2013-09-03 21:57:00,72.3,40.8,29.94,East,90,4.7,4.9,32,0.00,,SKC,0.00,VWS V14.00,2013-09-04 04:57:00,
2013-09-03 21:58:00,72.3,40.8,29.94,ESE,112,0.9,4.9,32,0.00,,SKC,0.00,VWS V14.00,2013-09-04 04:58:00,
2013-09-03 22:00:00,72.1,40.7,29.94,East,90,2.5,4.9,32,0.00,,SKC,0.00,VWS V14.00,2013-09-04 05:00:00,
2013-09-03 22:01:00,72.1,40.7,29.94,ESE,112,2.9,4.9,32,0.00,,SKC,0.00,VWS V14.00,2013-09-04 05:01:00,
2013-09-03 22:02:00,72.0,39.7,29.94,ESE,112,2.7,2.7,31,0.00,,SKC,0.00,VWS V14.00,2013-09-04 05:02:00,
2013-09-03 22:03:00,72.0,39.7,29.94,East,90,0.0,2.7,31,0.00,,SKC,0.00,VWS V14.00,2013-09-04 05:03:00,
2013-09-03 22:05:00,71.6,39.4,29.94,East,90,0.0,2.7,31,0.00,,SKC,0.00,VWS V14.00,2013-09-04 05:05:00,
2013-09-03 22:06:00,71.6,39.4,29.94,East,90,0.0,0.0,31,0.00,,SKC,0.00,VWS V14.00,2013-09-04 05:06:00,
2013-09-03 22:07:00,71.6,39.4,29.94,East,90,0.0,0.0,31,0.00,,SKC,0.00,VWS V14.00,2013-09-04 05:07:00,
2013-09-03 22:08:00,71.2,39.9,29.94,East,90,0.0,0.0,32,0.00,,SKC,0.00,VWS V14.00,2013-09-04 05:08:00,
2013-09-03 22:09:00,71.2,39.9,29.94,East,90,0.0,0.0,32,0.00,,SKC,0.00,VWS V14.00,2013-09-04 05:09:00,
2013-09-03 22:10:00,71.1,38.9,29.94,SSE,158,0.0,0.0,31,0.00,,SKC,0.00,VWS V14.00,2013-09-04 05:10:00,
2013-09-03 22:11:00,71.1,38.9,29.94,SW,225,0.0,0.0,31,0.00,,SKC,0.00,VWS V14.00,2013-09-04 05:11:00,
2013-09-03 22:12:00,70.9,39.6,29.94,WSW,248,0.0,0.0,32,0.00,,SKC,0.00,VWS V14.00,2013-09-04 05:12:00,
2013-09-03 22:13:00,70.9,39.6,29.94,WSW,248,0.0,0.0,32,0.00,,SKC,0.00,VWS V14.00,2013-09-04 05:13:00,
2013-09-03 22:14:00,70.7,39.4,29.94,WSW,248,2.9,3.1,32,0.00,,SKC,0.00,VWS V14.00,2013-09-04 05:14:00,
2013-09-03 22:15:00,70.7,39.4,29.94,WSW,248,1.6,3.1,32,0.00,,SKC,0.00,VWS V14.00,2013-09-04 05:15:00,
2013-09-03 22:16:00,70.7,39.4,29.94,WSW,248,0.0,2.0,32,0.00,,SKC,0.00,VWS V14.00,2013-09-04 05:16:00,
2013-09-03 22:17:00,70.7,39.4,29.94,WSW,248,0.0,2.0,32,0.00,,SKC,0.00,VWS V14.00,2013-09-04 05:17:00,
2013-09-03 22:18:00,70.7,40.2,29.94,WSW,248,3.6,4.0,33,0.00,,SKC,0.00,VWS V14.00,2013-09-04 05:18:00,
2013-09-03 22:19:00,70.7,40.2,29.94,WSW,248,2.7,4.0,33,0.00,,SKC,0.00,VWS V14.00,2013-09-04 05:19:00,
2013-09-03 22:20:00,70.7,40.2,29.94,WSW,248,2.7,4.0,33,0.00,,SKC,0.00,VWS V14.00,2013-09-04 05:20:00,
2013-09-03 22:22:00,70.7,39.4,29.94,NW,315,0.0,0.0,32,0.00,,SKC,0.00,VWS V14.00,2013-09-04 05:22:00,
2013-09-03 22:24:00,70.7,39.4,29.94,NW,315,0.0,0.0,32,0.00,,SKC,0.00,VWS V14.00,2013-09-04 05:24:00,
2013-09-03 22:25:00,70.7,39.4,29.94,NW,315,0.0,0.0,32,0.00,,SKC,0.00,VWS V14.00,2013-09-04 05:25:00,
2013-09-03 22:27:00,70.5,40.1,29.94,NNW,338,0.0,0.0,33,0.00,,SKC,0.00,VWS V14.00,2013-09-04 05:27:00,
2013-09-03 22:29:00,70.5,40.1,29.94,NNW,338,0.0,0.0,33,0.00,,SKC,0.00,VWS V14.00,2013-09-04 05:29:00,
2013-09-03 22:30:00,70.3,39.1,29.94,NNE,22,0.0,0.0,32,0.00,,SKC,0.00,VWS V14.00,2013-09-04 05:30:00,
2013-09-03 22:32:00,70.3,39.9,29.94,NNE,22,0.0,0.0,33,0.00,,SKC,0.00,VWS V14.00,2013-09-04 05:32:00,
2013-09-03 22:34:00,70.3,39.9,29.94,NNE,22,0.0,0.0,33,0.00,,SKC,0.00,VWS V14.00,2013-09-04 05:34:00,
2013-09-03 22:35:00,70.3,39.9,29.94,North,0,0.0,0.0,33,0.00,,SKC,0.00,VWS V14.00,2013-09-04 05:35:00,
2013-09-03 22:37:00,70.3,39.1,29.94,North,0,0.0,0.0,32,0.00,,SKC,0.00,VWS V14.00,2013-09-04 05:37:00,
2013-09-03 22:38:00,70.2,39.0,29.94,North,0,0.0,0.0,32,0.00,,SKC,0.00,VWS V14.00,2013-09-04 05:38:00,
2013-09-03 22:39:00,70.2,39.0,29.94,West,270,0.0,0.0,32,0.00,,SKC,0.00,VWS V14.00,2013-09-04 05:39:00,
2013-09-03 22:40:00,70.2,39.0,29.94,West,270,0.0,0.0,32,0.00,,SKC,0.00,VWS V14.00,2013-09-04 05:40:00,
2013-09-03 22:42:00,70.2,39.0,29.94,WNW,292,0.0,0.0,32,0.00,,SKC,0.00,VWS V14.00,2013-09-04 05:42:00,
2013-09-03 22:43:00,70.2,39.0,29.94,WNW,292,0.0,0.0,32,0.00,,SKC,0.00,VWS V14.00,2013-09-04 05:43:00,
2013-09-03 22:44:00,70.0,39.6,29.94,WNW,292,0.0,0.0,33,0.00,,SKC,0.00,VWS V14.00,2013-09-04 05:44:00,
2013-09-03 22:45:00,70.0,39.6,29.94,WNW,292,0.0,0.0,33,0.00,,SKC,0.00,VWS V14.00,2013-09-04 05:45:00,
2013-09-03 22:47:00,70.0,39.6,29.94,WNW,292,0.0,0.0,33,0.00,,SKC,0.00,VWS V14.00,2013-09-04 05:47:00,
2013-09-03 22:48:00,70.0,39.6,29.94,WNW,292,0.0,0.0,33,0.00,,SKC,0.00,VWS V14.00,2013-09-04 05:48:00,
2013-09-03 22:49:00,70.2,39.7,29.94,WNW,292,0.0,0.0,33,0.00,,SKC,0.00,VWS V14.00,2013-09-04 05:49:00,
2013-09-03 22:50:00,70.2,39.7,29.94,WNW,292,0.0,0.0,33,0.00,,SKC,0.00,VWS V14.00,2013-09-04 05:50:00,
2013-09-03 22:53:00,70.0,39.6,29.94,WNW,292,0.0,0.0,33,0.00,,SKC,0.00,VWS V14.00,2013-09-04 05:53:00,
2013-09-03 22:54:00,70.0,39.6,29.94,WNW,292,0.0,0.0,33,0.00,,SKC,0.00,VWS V14.00,2013-09-04 05:54:00,
2013-09-03 22:55:00,70.0,39.6,29.94,NNW,338,0.0,0.0,33,0.00,,SKC,0.00,VWS V14.00,2013-09-04 05:55:00,
2013-09-03 22:56:00,70.0,39.6,29.94,NNW,338,0.0,0.0,33,0.00,,SKC,0.00,VWS V14.00,2013-09-04 05:56:00,
2013-09-03 22:58:00,70.0,39.6,29.94,NNW,338,0.0,0.0,33,0.00,,SKC,0.00,VWS V14.00,2013-09-04 05:58:00,
2013-09-03 22:59:00,70.0,39.6,29.94,NNW,338,0.0,0.0,33,0.00,,SKC,0.00,VWS V14.00,2013-09-04 05:59:00,
2013-09-03 23:00:00,70.0,39.6,29.94,NNW,338,0.0,0.0,33,0.00,,SKC,0.00,VWS V14.00,2013-09-04 06:00:00,
2013-09-03 23:01:00,69.8,39.4,29.94,NNW,338,0.0,0.0,33,0.00,,SKC,0.00,VWS V14.00,2013-09-04 06:01:00,
2013-09-03 23:03:00,69.6,39.3,29.94,NNW,338,0.0,0.0,33,0.00,,SKC,0.00,VWS V14.00,2013-09-04 06:03:00,
2013-09-03 23:04:00,69.6,39.3,29.94,NNW,338,0.0,0.0,33,0.00,,SKC,0.00,VWS V14.00,2013-09-04 06:04:00,
2013-09-03 23:05:00,69.6,39.3,29.94,NNW,338,0.0,0.0,33,0.00,,SKC,0.00,VWS V14.00,2013-09-04 06:05:00,
2013-09-03 23:06:00,69.6,39.3,29.94,NNW,338,0.0,0.0,33,0.00,,SKC,0.00,VWS V14.00,2013-09-04 06:06:00,
2013-09-03 23:08:00,69.6,39.3,29.94,NNW,338,0.0,0.0,33,0.00,,SKC,0.00,VWS V14.00,2013-09-04 06:08:00,
2013-09-03 23:09:00,69.6,39.3,29.94,NE,45,0.0,0.0,33,0.00,,SKC,0.00,VWS V14.00,2013-09-04 06:09:00,
2013-09-03 23:10:00,69.6,39.3,29.94,NE,45,0.0,0.0,33,0.00,,SKC,0.00,VWS V14.00,2013-09-04 06:10:00,
2013-09-03 23:12:00,69.6,39.3,29.94,NE,45,0.0,0.0,33,0.00,,SKC,0.00,VWS V14.00,2013-09-04 06:12:00,
2013-09-03 23:14:00,69.4,39.1,29.97,NE,45,0.0,0.0,33,0.00,,SKC,0.00,VWS V14.00,2013-09-04 06:14:00,
2013-09-03 23:15:00,69.4,39.1,29.97,ESE,112,0.0,0.0,33,0.00,,SKC,0.00,VWS V14.00,2013-09-04 06:15:00,
2013-09-03 23:16:00,69.4,39.1,29.97,ESE,112,0.0,0.0,33,0.00,,SKC,0.00,VWS V14.00,2013-09-04 06:16:00,
2013-09-03 23:17:00,69.4,39.1,29.97,SE,135,0.0,0.0,33,0.00,,SKC,0.00,VWS V14.00,2013-09-04 06:17:00,
2013-09-03 23:19:00,69.4,39.1,29.97,SE,135,0.0,0.0,33,0.00,,SKC,0.00,VWS V14.00,2013-09-04 06:19:00,
2013-09-03 23:20:00,69.3,39.0,29.97,SE,135,0.0,0.0,33,0.00,,SKC,0.00,VWS V14.00,2013-09-04 06:20:00,
2013-09-03 23:21:00,69.3,39.0,29.97,SE,135,0.0,0.0,33,0.00,,SKC,0.00,VWS V14.00,2013-09-04 06:21:00,
2013-09-03 23:22:00,69.1,38.8,29.97,SE,135,0.0,0.0,33,0.00,,SKC,0.00,VWS V14.00,2013-09-04 06:22:00,
2013-09-03 23:24:00,69.1,38.8,29.97,SE,135,0.0,0.0,33,0.00,,SKC,0.00,VWS V14.00,2013-09-04 06:24:00,
2013-09-03 23:25:00,68.9,38.6,29.97,SE,135,0.0,0.0,33,0.00,,SKC,0.00,VWS V14.00,2013-09-04 06:25:00,
2013-09-03 23:26:00,68.9,38.6,29.97,SE,135,0.0,0.0,33,0.00,,SKC,0.00,VWS V14.00,2013-09-04 06:26:00,
2013-09-03 23:27:00,68.9,39.4,29.97,SE,135,0.0,0.0,34,0.00,,SKC,0.00,VWS V14.00,2013-09-04 06:27:00,
2013-09-03 23:29:00,69.1,39.6,29.97,SE,135,0.0,0.0,34,0.00,,SKC,0.00,VWS V14.00,2013-09-04 06:29:00,
2013-09-03 23:31:00,69.1,40.3,29.97,SE,135,0.0,0.0,35,0.00,,SKC,0.00,VWS V14.00,2013-09-04 06:31:00,
2013-09-03 23:32:00,69.1,40.3,29.97,SE,135,0.0,0.0,35,0.00,,SKC,0.00,VWS V14.00,2013-09-04 06:32:00,
2013-09-03 23:34:00,69.3,39.7,29.97,SE,135,0.0,0.0,34,0.00,,SKC,0.00,VWS V14.00,2013-09-04 06:34:00,
2013-09-03 23:35:00,69.3,39.7,29.97,SE,135,0.0,0.0,34,0.00,,SKC,0.00,VWS V14.00,2013-09-04 06:35:00,
2013-09-03 23:36:00,69.3,39.7,29.97,North,0,2.5,2.5,34,0.00,,SKC,0.00,VWS V14.00,2013-09-04 06:36:00,
2013-09-03 23:38:00,68.7,40.0,29.97,North,0,1.3,2.5,35,0.00,,SKC,0.00,VWS V14.00,2013-09-04 06:38:00,
2013-09-03 23:39:00,68.5,39.8,29.97,North,0,0.0,2.5,35,0.00,,SKC,0.00,VWS V14.00,2013-09-04 06:39:00,
2013-09-03 23:40:00,68.5,39.8,29.97,North,0,0.0,2.5,35,0.00,,SKC,0.00,VWS V14.00,2013-09-04 06:40:00,
2013-09-03 23:42:00,68.5,39.8,29.97,North,0,0.0,2.5,35,0.00,,SKC,0.00,VWS V14.00,2013-09-04 06:42:00,
2013-09-03 23:43:00,68.5,39.1,29.97,North,0,0.0,2.5,34,0.00,,SKC,0.00,VWS V14.00,2013-09-04 06:43:00,
2013-09-03 23:44:00,68.5,39.1,29.97,North,0,0.0,2.5,34,0.00,,SKC,0.00,VWS V14.00,2013-09-04 06:44:00,
2013-09-03 23:45:00,68.5,39.1,29.97,North,0,0.0,2.5,34,0.00,,SKC,0.00,VWS V14.00,2013-09-04 06:45:00,
2013-09-03 23:46:00,68.5,39.1,29.97,North,0,0.0,2.5,34,0.00,,SKC,0.00,VWS V14.00,2013-09-04 06:46:00,
2013-09-03 23:47:00,68.4,38.9,29.97,North,0,0.0,0.0,34,0.00,,SKC,0.00,VWS V14.00,2013-09-04 06:47:00,
2013-09-03 23:49:00,68.4,38.9,29.97,North,0,0.0,0.0,34,0.00,,SKC,0.00,VWS V14.00,2013-09-04 06:49:00,
2013-09-03 23:50:00,68.4,38.9,29.97,North,0,0.0,0.0,34,0.00,,SKC,0.00,VWS V14.00,2013-09-04 06:50:00,
2013-09-03 23:51:00,68.4,38.9,29.97,North,0,0.0,0.0,34,0.00,,SKC,0.00,VWS V14.00,2013-09-04 06:51:00,
2013-09-03 23:52:00,68.4,38.9,29.97,North,0,0.0,0.0,34,0.00,,SKC,0.00,VWS V14.00,2013-09-04 06:52:00,
2013-09-03 23:53:00,68.4,38.9,29.97,North,0,0.0,0.0,34,0.00,,SKC,0.00,VWS V14.00,2013-09-04 06:53:00,
2013-09-03 23:54:00,68.5,39.1,29.97,North,0,0.0,0.0,34,0.00,,SKC,0.00,VWS V14.00,2013-09-04 06:54:00,
2013-09-03 23:55:00,68.5,39.1,29.97,North,0,0.0,0.0,34,0.00,,SKC,0.00,VWS V14.00,2013-09-04 06:55:00,
2013-09-03 23:56:00,68.5,39.1,29.97,North,0,0.0,0.0,34,0.00,,SKC,0.00,VWS V14.00,2013-09-04 06:56:00,
2013-09-03 23:57:00,68.5,39.1,29.97,North,0,0.0,0.0,34,0.00,,SKC,0.00,VWS V14.00,2013-09-04 06:57:00,
2013-09-03 23:58:00,68.5,39.1,29.97,North,0,0.0,0.0,34,0.00,,SKC,0.00,VWS V14.00,2013-09-04 06:58:00,
2013-09-03 23:59:00,68.5,39.1,29.97,North,0,0.0,0.0,34,0.00,,SKC,0.00,VWS V14.00,2013-09-04 06:59:00,